M I D A S
Marine Information and Data Acquisition System
Tripno 2149 of the Zeeleeuw from 2011-07-20 06:56:54 to 2011-07-20 15:44:48
Back to CruiseResearch ActivitiesStationsMapUnderway DataData graphs

EquipmentUnitsComment
TimeDGPSUTC
LatitudeDGPSDM.mWGS84
LongitudeDGPSDM.mWGS84
TemperatureSBE03/SBE38deg celciusITS90
ConductivitySBE21S/mITS90
SalinitySBE21 Practical Salinity Units
ChlorophylAChelsea fluorimeterg/lCalibrated in Aceton
Missing or incorrect values are displayed as -999
Sea surface data collected by the RV Zeeleeuw from 2011-07-20 06:46:38 to 2011-07-20 16:07:07
                                                                                    Next 1000 lines
Time Latitude Longitude Temperature Conductivity Salinity ChlorophylA
2011-07-20 06:46:48 51°13.635 2°56.019 20.8972 0.014952 0.080005 -3.020363
2011-07-20 06:46:52 51°13.635 2°56.019 20.8968 0.014952 0.080007 -3.020363
2011-07-20 06:46:58 51°13.635 2°56.019 20.8966 0.014952 0.080007 -3.020363
2011-07-20 06:47:03 51°13.635 2°56.019 20.897 0.014952 0.080008 -3.020363
2011-07-20 06:47:08 51°13.635 2°56.019 20.8977 0.014952 0.080008 -3.020363
2011-07-20 06:47:12 51°13.635 2°56.019 20.8983 0.014952 0.080008 -3.020363
2011-07-20 06:47:17 51°13.635 2°56.019 20.8984 0.014952 0.080008 -3.020363
2011-07-20 06:47:23 51°13.635 2°56.019 20.8988 0.014952 0.080008 -3.020363
2011-07-20 06:47:28 51°13.635 2°56.019 20.8995 0.014952 0.080009 -3.020363
2011-07-20 06:47:32 51°13.635 2°56.019 20.9014 0.014952 0.080009 -3.020363
2011-07-20 06:47:37 51°13.635 2°56.019 20.9024 0.014952 0.080009 -3.020363
2011-07-20 06:47:42 51°13.635 2°56.019 20.9029 0.014952 0.08001 -3.020363
2011-07-20 06:47:48 51°13.635 2°56.019 20.9036 0.014952 0.08001 -3.020363
2011-07-20 06:47:52 51°13.635 2°56.019 20.9041 0.014952 0.08001 -3.020363
2011-07-20 06:47:57 51°13.635 2°56.019 20.9037 0.014952 0.080011 -3.020363
2011-07-20 06:48:03 51°13.636 2°56.019 20.9044 0.014952 0.080011 -3.020363
2011-07-20 06:48:08 51°13.636 2°56.02 20.904 0.014952 0.080011 -3.020363
2011-07-20 06:48:13 51°13.636 2°56.02 20.9045 0.014952 0.080011 -3.020363
2011-07-20 06:48:18 51°13.636 2°56.02 20.9049 0.014952 0.080012 -3.020363
2011-07-20 06:48:23 51°13.636 2°56.02 20.9061 0.014952 0.080012 -3.020363
2011-07-20 06:48:27 51°13.636 2°56.02 20.9064 0.014952 0.080012 -3.020363
2011-07-20 06:48:33 51°13.636 2°56.02 20.907 0.014952 0.080013 -3.020363
2011-07-20 06:48:37 51°13.636 2°56.02 20.9078 0.014952 0.080013 -3.020363
2011-07-20 06:48:42 51°13.636 2°56.02 20.9081 0.014952 0.080013 -3.020363
2011-07-20 06:48:47 51°13.636 2°56.02 20.9094 0.014952 0.080013 -3.020363
2011-07-20 06:48:52 51°13.636 2°56.02 20.9087 0.014952 0.080014 -3.020363
2011-07-20 06:48:57 51°13.636 2°56.02 20.9094 0.014952 0.080014 -3.020363
2011-07-20 06:49:02 51°13.636 2°56.02 20.9098 0.014952 0.080014 -3.020363
2011-07-20 06:49:07 51°13.636 2°56.02 20.91 0.014952 0.080014 -3.020363
2011-07-20 06:49:13 51°13.636 2°56.02 20.9102 0.014952 0.080016 -3.020363
2011-07-20 06:49:18 51°13.636 2°56.02 20.9115 0.014952 0.080016 -3.020363
2011-07-20 06:49:22 51°13.636 2°56.02 20.9122 0.014952 0.080016 -3.020363
2011-07-20 06:49:28 51°13.636 2°56.02 20.9118 0.014952 0.080017 -3.020363
2011-07-20 06:49:33 51°13.636 2°56.02 20.9118 0.014952 0.080017 -3.020363
2011-07-20 06:49:38 51°13.636 2°56.02 20.9123 0.014952 0.080017 -3.020363
2011-07-20 06:49:42 51°13.636 2°56.02 20.9126 0.014952 0.080017 -3.020363
2011-07-20 06:49:48 51°13.636 2°56.019 20.912 0.014952 0.080017 -3.020363
2011-07-20 06:49:53 51°13.636 2°56.019 20.9128 0.014952 0.080018 -3.020363
2011-07-20 06:49:58 51°13.636 2°56.019 20.9113 0.014952 0.080018 -3.020363
2011-07-20 06:50:02 51°13.636 2°56.019 20.9131 0.014952 0.080019 -3.020363
2011-07-20 06:50:07 51°13.636 2°56.019 20.9196 0.014952 0.080019 -3.020363
2011-07-20 06:50:13 51°13.636 2°56.019 20.9286 0.014952 0.080019 -3.020363
2011-07-20 06:50:18 51°13.636 2°56.019 20.9357 0.014952 0.080019 -3.020363
2011-07-20 06:50:22 51°13.636 2°56.019 20.9165 0.014952 0.080019 -3.020363
2011-07-20 06:50:28 51°13.636 2°56.019 20.903 0.014952 0.08002 -3.020363
2011-07-20 06:50:33 51°13.636 2°56.019 20.9088 0.014952 0.08002 -3.020363
2011-07-20 06:50:38 51°13.636 2°56.019 20.9077 0.014952 0.08002 -3.020363
2011-07-20 06:50:42 51°13.636 2°56.019 20.9077 0.014952 0.08002 -3.020363
2011-07-20 06:50:48 51°13.636 2°56.019 20.9097 0.014952 0.080021 -3.020363
2011-07-20 06:50:53 51°13.636 2°56.019 20.9256 0.014952 0.080021 -3.020363
2011-07-20 06:50:58 51°13.636 2°56.019 20.9186 0.014952 0.080022 -3.020363
2011-07-20 06:51:03 51°13.636 2°56.019 20.9078 0.014952 0.080022 -3.020363
2011-07-20 06:51:07 51°13.636 2°56.019 20.9105 0.014952 0.080022 -3.020363
2011-07-20 06:51:13 51°13.636 2°56.019 20.9112 0.014952 0.080022 -3.020363
2011-07-20 06:51:18 51°13.636 2°56.019 20.9141 0.014952 0.080022 -3.020363
2011-07-20 06:51:23 51°13.636 2°56.019 20.9091 0.014952 0.080023 -3.020363
2011-07-20 06:51:27 51°13.636 2°56.019 20.9091 0.014952 0.080023 -3.020363
2011-07-20 06:51:33 51°13.636 2°56.019 20.9117 0.014952 0.080025 -3.020363
2011-07-20 06:51:38 51°13.636 2°56.019 20.9146 0.014952 0.080025 -3.020363
2011-07-20 06:51:43 51°13.636 2°56.019 20.9172 0.014952 0.080025 -3.020363
2011-07-20 06:51:47 51°13.636 2°56.019 20.9197 0.014952 0.080025 -3.020363
2011-07-20 06:51:52 51°13.636 2°56.019 20.9215 0.014952 0.080026 -3.020363
2011-07-20 06:51:57 51°13.636 2°56.019 20.9264 0.014952 0.080026 -3.020363
2011-07-20 06:52:03 51°13.636 2°56.019 20.9254 0.014952 0.080026 -3.020363
2011-07-20 06:52:07 51°13.636 2°56.019 20.9227 0.014952 0.080026 -3.020363
2011-07-20 06:52:12 51°13.636 2°56.019 20.9291 0.014952 0.080026 -3.020363
2011-07-20 06:52:18 51°13.636 2°56.019 20.9296 0.014952 0.080026 -3.020363
2011-07-20 06:52:23 51°13.636 2°56.019 20.9254 0.014952 0.080027 -3.020363
2011-07-20 06:52:28 51°13.636 2°56.019 20.9245 0.014952 0.080027 -3.020363
2011-07-20 06:52:33 51°13.636 2°56.019 20.9244 0.014952 0.080027 -3.020363
2011-07-20 06:52:38 51°13.636 2°56.019 20.9243 0.014952 0.080027 -3.020363
2011-07-20 06:52:43 51°13.636 2°56.019 20.925 0.014952 0.080028 -3.020363
2011-07-20 06:52:48 51°13.636 2°56.019 20.9223 0.014952 0.080028 -3.020363
2011-07-20 06:52:53 51°13.636 2°56.019 20.9227 0.014952 0.080028 -3.020363
2011-07-20 06:52:57 51°13.636 2°56.019 20.9238 0.014952 0.080029 -3.020363
2011-07-20 06:53:02 51°13.637 2°56.019 20.9263 0.014952 0.080029 -3.020363
2011-07-20 06:53:08 51°13.637 2°56.019 20.9293 0.014952 0.080029 -3.020363
2011-07-20 06:53:12 51°13.637 2°56.019 20.9299 0.014952 0.080029 -3.020363
2011-07-20 06:53:17 51°13.637 2°56.019 20.9319 0.014952 0.080029 -3.020363
2011-07-20 06:53:23 51°13.636 2°56.019 20.9318 0.014952 0.08003 -3.020363
2011-07-20 06:53:28 51°13.636 2°56.019 20.9305 0.014952 0.08003 -3.020363
2011-07-20 06:53:33 51°13.637 2°56.019 20.932 0.014952 0.08003 -3.020363
2011-07-20 06:53:38 51°13.637 2°56.019 20.9374 0.014952 0.08003 -3.020363
2011-07-20 06:53:43 51°13.637 2°56.019 20.9342 0.014952 0.080031 -3.020363
2011-07-20 06:53:48 51°13.636 2°56.019 20.9382 0.014952 0.080031 -3.020363
2011-07-20 06:53:53 51°13.636 2°56.019 20.9397 0.014952 0.080031 -3.020363
2011-07-20 06:53:57 51°13.637 2°56.019 20.9425 0.014952 0.080032 -3.020363
2011-07-20 06:54:03 51°13.636 2°56.019 20.9395 0.014952 0.080032 -3.020363
2011-07-20 06:54:08 51°13.636 2°56.019 20.9347 0.014952 0.080032 -3.020363
2011-07-20 06:54:13 51°13.636 2°56.019 20.9356 0.014952 0.080032 -3.020363
2011-07-20 06:54:17 51°13.636 2°56.019 20.9351 0.014952 0.080034 -3.020363
2011-07-20 06:54:22 51°13.636 2°56.019 20.9399 0.014952 0.080034 -3.020363
2011-07-20 06:54:27 51°13.637 2°56.019 20.938 0.014952 0.080035 -3.020363
2011-07-20 06:54:33 51°13.636 2°56.019 20.9409 0.014952 0.080034 -3.020363
2011-07-20 06:54:37 51°13.637 2°56.018 20.9381 0.014952 0.080034 -3.020363
2011-07-20 06:54:43 51°13.636 2°56.019 20.9398 0.014952 0.080035 -3.020363
2011-07-20 06:54:48 51°13.636 2°56.019 20.9412 0.014952 0.080035 -3.020363
2011-07-20 06:54:53 51°13.636 2°56.019 20.9449 0.014952 0.080035 -3.020363
2011-07-20 06:54:58 51°13.636 2°56.019 20.9435 0.014952 0.080036 -3.020363
2011-07-20 06:55:02 51°13.636 2°56.019 20.9434 0.014952 0.080036 -3.020363
2011-07-20 06:55:08 51°13.636 2°56.019 20.9495 0.014952 0.080036 -3.020363
2011-07-20 06:55:13 51°13.636 2°56.019 20.9532 0.014952 0.080037 -3.020363
2011-07-20 06:55:18 51°13.636 2°56.019 20.959 0.014952 0.080037 -3.020363
2011-07-20 06:55:22 51°13.636 2°56.019 20.9541 0.014952 0.080037 -3.020363
2011-07-20 06:55:27 51°13.636 2°56.019 20.954 0.014952 0.080037 -3.020363
2011-07-20 06:55:32 51°13.636 2°56.019 20.9487 0.014952 0.080038 -3.020363
2011-07-20 06:55:38 51°13.636 2°56.019 20.949 0.014952 0.080038 -3.020363
2011-07-20 06:55:43 51°13.636 2°56.019 20.9523 0.014952 0.080038 -3.020363
2011-07-20 06:55:48 51°13.636 2°56.019 20.949 0.014952 0.080038 -3.020363
2011-07-20 06:55:53 51°13.636 2°56.019 20.951 0.014952 0.080039 -3.020363
2011-07-20 06:55:58 51°13.636 2°56.02 20.9533 0.014952 0.080039 -3.020363
2011-07-20 06:56:03 51°13.636 2°56.02 20.9546 0.014952 0.080039 -3.020363
2011-07-20 06:56:07 51°13.636 2°56.021 20.9536 0.014952 0.080039 -3.020363
2011-07-20 06:56:13 51°13.636 2°56.021 20.955 0.014952 0.080039 -3.020363
2011-07-20 06:56:17 51°13.636 2°56.021 20.954 0.014952 0.08004 -3.020363
2011-07-20 06:56:23 51°13.636 2°56.021 20.9514 0.014952 0.08004 -3.020363
2011-07-20 06:56:27 51°13.636 2°56.021 20.9513 0.014952 0.080041 -3.020363
2011-07-20 06:56:32 51°13.636 2°56.021 20.9488 0.014952 0.080041 -3.020363
2011-07-20 06:56:38 51°13.636 2°56.021 20.9495 0.014952 0.080041 -3.020363
2011-07-20 06:56:43 51°13.637 2°56.022 20.9504 0.014952 0.080041 -3.020363
2011-07-20 06:56:48 51°13.637 2°56.022 20.9518 0.014952 0.080041 -3.020363
2011-07-20 06:56:52 51°13.637 2°56.022 20.9533 0.014952 0.080041 -3.020363
2011-07-20 06:56:58 51°13.637 2°56.022 20.9543 0.014952 0.080043 -3.020363
2011-07-20 06:57:03 51°13.637 2°56.022 20.9525 0.014952 0.080044 -3.020363
2011-07-20 06:57:08 51°13.637 2°56.022 20.9557 0.014952 0.080044 -3.020363
2011-07-20 06:57:12 51°13.637 2°56.022 20.9578 0.014952 0.080044 -3.020363
2011-07-20 06:57:18 51°13.636 2°56.022 20.9588 0.014952 0.080044 -3.020363
2011-07-20 06:57:23 51°13.636 2°56.022 20.9604 0.014952 0.080044 -3.020363
2011-07-20 06:57:28 51°13.636 2°56.022 20.959 0.014952 0.080045 -3.020363
2011-07-20 06:57:32 51°13.636 2°56.02 20.9579 0.014952 0.080045 -3.020363
2011-07-20 06:57:37 51°13.636 2°56.019 20.9575 0.014952 0.080045 -3.020363
2011-07-20 06:57:43 51°13.636 2°56.019 20.9612 0.014952 0.080045 -3.020363
2011-07-20 06:57:48 51°13.636 2°56.019 20.9593 0.014952 0.080046 -3.020363
2011-07-20 06:57:52 51°13.636 2°56.019 20.9663 0.014952 0.080046 -3.020363
2011-07-20 06:57:57 51°13.636 2°56.019 20.9738 0.014952 0.080046 -3.020363
2011-07-20 06:58:03 51°13.636 2°56.019 20.9747 0.014952 0.080046 -3.020363
2011-07-20 06:58:08 51°13.636 2°56.019 20.9732 0.014952 0.080046 -3.020363
2011-07-20 06:58:12 51°13.636 2°56.019 20.9644 0.014952 0.080047 -3.020363
2011-07-20 06:58:17 51°13.636 2°56.019 20.9693 0.014952 0.080047 -3.020363
2011-07-20 06:58:23 51°13.636 2°56.019 20.9717 0.014952 0.080047 -3.020363
2011-07-20 06:58:28 51°13.636 2°56.019 20.955 0.014952 0.080048 -3.020363
2011-07-20 06:58:32 51°13.636 2°56.019 20.9505 0.014952 0.080048 -3.020363
2011-07-20 06:58:38 51°13.636 2°56.019 20.9567 0.014952 0.080048 -3.020363
2011-07-20 06:58:43 51°13.636 2°56.019 20.9602 0.014952 0.080048 -3.020363
2011-07-20 06:58:48 51°13.636 2°56.019 20.9644 0.014952 0.080048 -3.020363
2011-07-20 06:58:53 51°13.636 2°56.019 20.959 0.014952 0.080049 -3.020363
2011-07-20 06:58:57 51°13.636 2°56.019 20.9575 0.014952 0.080049 -3.020363
2011-07-20 06:59:03 51°13.636 2°56.019 20.9592 0.014952 0.080049 -3.020363
2011-07-20 06:59:08 51°13.636 2°56.019 20.9573 0.014952 0.080049 -3.020363
2011-07-20 06:59:13 51°13.636 2°56.019 20.9774 0.014952 0.08005 -3.020363
2011-07-20 06:59:17 51°13.636 2°56.019 20.9661 0.014952 0.08005 -3.020363
2011-07-20 06:59:23 51°13.636 2°56.019 20.9693 0.014952 0.08005 -3.020363
2011-07-20 06:59:28 51°13.636 2°56.019 20.9689 0.014952 0.080052 -3.020363
2011-07-20 06:59:33 51°13.636 2°56.019 20.9725 0.014952 0.080052 -3.020363
2011-07-20 06:59:37 51°13.636 2°56.019 20.9739 0.014952 0.080052 -3.020363
2011-07-20 06:59:43 51°13.635 2°56.019 20.9761 0.014952 0.080052 -3.020363
2011-07-20 06:59:47 51°13.635 2°56.019 20.9776 0.014952 0.080053 -3.020363
2011-07-20 06:59:53 51°13.635 2°56.018 20.9791 0.014952 0.080053 -3.020363
2011-07-20 06:59:58 51°13.635 2°56.018 20.9793 0.014952 0.080053 -3.020363
2011-07-20 07:00:03 51°13.635 2°56.018 20.9785 0.014952 0.080054 -3.020363
2011-07-20 07:00:08 51°13.635 2°56.018 20.9657 0.014952 0.080054 -3.020363
2011-07-20 07:00:13 51°13.635 2°56.018 20.9592 0.014952 0.080054 -3.020363
2011-07-20 07:00:18 51°13.635 2°56.018 20.9598 0.014952 0.080054 -3.020363
2011-07-20 07:00:22 51°13.635 2°56.018 20.9378 0.014952 0.080054 -3.020363
2011-07-20 07:00:27 51°13.635 2°56.017 20.9251 0.014952 0.080055 -3.020363
2011-07-20 07:00:32 51°13.635 2°56.015 20.9215 0.014952 0.080055 -3.020363
2011-07-20 07:00:38 51°13.636 2°56.011 20.95 0.014952 0.080055 -3.020363
2011-07-20 07:00:42 51°13.637 2°56.008 20.9578 0.014952 0.080055 -3.020363
2011-07-20 07:00:48 51°13.639 2°56.002 20.9696 0.014952 0.080056 -3.020363
2011-07-20 07:00:54 51°13.641 2°55.995 20.9642 0.014952 0.080057 -3.020363
2011-07-20 07:01:00 51°13.643 2°55.987 20.9676 0.014952 0.080057 -3.020363
2011-07-20 07:01:06 51°13.646 2°55.978 20.9677 0.014952 0.080057 -3.020363
2011-07-20 07:01:11 51°13.648 2°55.97 20.9639 0.014952 0.080057 -3.020363
2011-07-20 07:01:16 51°13.651 2°55.962 20.9525 0.014952 0.080057 -3.020363
2011-07-20 07:01:21 51°13.653 2°55.953 20.964 0.014952 0.080058 -3.020363
2011-07-20 07:01:26 51°13.656 2°55.943 20.9776 0.014952 0.080058 -3.020363
2011-07-20 07:01:31 51°13.659 2°55.934 20.9631 0.014952 0.080058 -3.020363
2011-07-20 07:01:35 51°13.661 2°55.926 20.9809 0.014952 0.080059 -3.020363
2011-07-20 07:01:40 51°13.664 2°55.916 20.9829 0.014952 0.080059 -3.020363
2011-07-20 07:01:46 51°13.667 2°55.905 20.9867 0.014952 0.080059 -3.020363
2011-07-20 07:01:52 51°13.67 2°55.894 20.9776 0.014952 0.080059 -3.020363
2011-07-20 07:01:56 51°13.672 2°55.887 20.9722 0.014952 0.080059 -3.020363
2011-07-20 07:02:01 51°13.674 2°55.878 20.9664 0.014952 0.080058 -3.020363
2011-07-20 07:02:06 51°13.676 2°55.87 20.9611 0.014952 0.080057 -3.020363
2011-07-20 07:02:11 51°13.679 2°55.862 20.962 0.014952 0.080057 -3.020363
2011-07-20 07:02:16 51°13.682 2°55.853 20.9737 0.014952 0.080056 -3.020363
2011-07-20 07:02:21 51°13.685 2°55.845 20.9722 0.014952 0.080056 -3.020363
2011-07-20 07:02:26 51°13.688 2°55.837 20.9728 0.014952 0.080055 -3.020363
2011-07-20 07:02:31 51°13.691 2°55.829 20.9715 0.014952 0.080055 -3.020363
2011-07-20 07:02:36 51°13.694 2°55.821 20.97 0.014952 0.080055 -3.020363
2011-07-20 07:02:41 51°13.698 2°55.813 20.9709 0.014952 0.080055 -3.020363
2011-07-20 07:02:46 51°13.701 2°55.805 20.9744 0.014952 0.080054 -3.020363
2011-07-20 07:02:51 51°13.705 2°55.797 20.976 0.014952 0.080055 -3.020363
2011-07-20 07:02:56 51°13.709 2°55.789 20.9677 0.014952 0.080055 -3.020363
2011-07-20 07:03:02 51°13.714 2°55.779 20.9763 0.014952 0.080054 -3.020363
2011-07-20 07:03:07 51°13.718 2°55.77 20.949 0.014952 0.080055 -3.020363
2011-07-20 07:03:12 51°13.722 2°55.762 20.9727 0.014952 0.080055 -3.020363
2011-07-20 07:03:17 51°13.727 2°55.753 20.9742 0.014952 0.080055 -3.020363
2011-07-20 07:03:21 51°13.731 2°55.747 20.981 0.014952 0.080055 -3.020363
2011-07-20 07:03:27 51°13.737 2°55.736 20.9763 0.014952 0.080055 -3.020363
2011-07-20 07:03:31 51°13.74 2°55.73 20.9699 0.014952 0.080056 -3.020363
2011-07-20 07:03:36 51°13.746 2°55.721 20.9756 0.014952 0.080056 -3.020363
2011-07-20 07:03:41 51°13.751 2°55.713 20.9783 0.014952 0.080056 -3.020363
2011-07-20 07:03:46 51°13.757 2°55.704 20.9796 0.014952 0.080056 -3.020363
2011-07-20 07:03:51 51°13.762 2°55.696 20.9983 0.014952 0.080056 -3.020363
2011-07-20 07:03:56 51°13.769 2°55.688 20.9969 0.014952 0.080056 -3.020363
2011-07-20 07:04:01 51°13.775 2°55.68 20.9942 0.014952 0.080056 -3.020363
2011-07-20 07:04:05 51°13.78 2°55.674 20.9953 0.014952 0.080057 -3.020363
2011-07-20 07:04:11 51°13.788 2°55.665 20.9814 0.014952 0.080057 -3.020363
2011-07-20 07:04:16 51°13.795 2°55.658 20.9872 0.014952 0.080057 -3.020363
2011-07-20 07:04:21 51°13.802 2°55.65 20.993 0.014952 0.080058 -3.020363
2011-07-20 07:04:26 51°13.809 2°55.644 20.9799 0.014952 0.080058 -3.020363
2011-07-20 07:04:31 51°13.816 2°55.638 20.9847 0.014952 0.080058 -3.020363
2011-07-20 07:04:36 51°13.823 2°55.632 20.9882 0.014952 0.080058 -3.020363
2011-07-20 07:04:41 51°13.831 2°55.627 20.9894 0.014952 0.080058 -3.020363
2011-07-20 07:04:46 51°13.838 2°55.622 20.9901 0.014952 0.080058 -3.020363
2011-07-20 07:04:51 51°13.845 2°55.618 20.9902 0.014952 0.080058 -3.020363
2011-07-20 07:04:56 51°13.853 2°55.614 20.992 0.014952 0.080059 -3.020363
2011-07-20 07:05:01 51°13.86 2°55.61 20.9931 0.014952 0.080059 -3.020363
2011-07-20 07:05:07 51°13.869 2°55.607 20.9937 0.014952 0.080059 -3.020363
2011-07-20 07:05:11 51°13.875 2°55.605 20.9925 0.014952 0.080059 -3.020363
2011-07-20 07:05:16 51°13.883 2°55.603 20.9975 0.014952 0.080059 -3.020363
2011-07-20 07:05:21 51°13.89 2°55.601 20.9883 0.014952 0.080059 -3.020363
2011-07-20 07:05:26 51°13.897 2°55.6 20.984 0.014952 0.080061 -3.020363
2011-07-20 07:05:31 51°13.904 2°55.599 20.9862 0.014952 0.080061 -3.020363
2011-07-20 07:05:37 51°13.912 2°55.599 20.9907 0.014952 0.080061 -3.020363
2011-07-20 07:05:41 51°13.917 2°55.598 20.9915 0.014952 0.080061 -3.020363
2011-07-20 07:05:46 51°13.924 2°55.598 20.9946 0.014952 0.080062 -3.020363
2011-07-20 07:05:51 51°13.93 2°55.599 20.9951 0.014952 0.080062 -3.020363
2011-07-20 07:05:56 51°13.936 2°55.6 20.9969 0.014952 0.080062 -3.020363
2011-07-20 07:06:01 51°13.942 2°55.602 20.9975 0.014952 0.080062 -3.020363
2011-07-20 07:06:06 51°13.947 2°55.603 21.0009 0.014952 0.080063 -3.020363
2011-07-20 07:06:11 51°13.952 2°55.605 21.0191 0.014952 0.080063 -3.020363
2011-07-20 07:06:16 51°13.956 2°55.606 21.0107 0.014952 0.080063 -3.020363
2011-07-20 07:06:21 51°13.96 2°55.608 21.0081 0.014952 0.080063 -3.020363
2011-07-20 07:06:26 51°13.962 2°55.609 20.9973 0.014952 0.080063 -3.020363
2011-07-20 07:06:31 51°13.964 2°55.61 21.0027 0.014952 0.080064 -3.020363
2011-07-20 07:06:36 51°13.966 2°55.61 20.9975 0.014952 0.080064 -3.020363
2011-07-20 07:06:41 51°13.966 2°55.61 20.9969 0.014952 0.080064 -3.020363
2011-07-20 07:06:45 51°13.967 2°55.61 20.9996 0.014952 0.080065 -3.020363
2011-07-20 07:06:51 51°13.967 2°55.609 21.0078 0.014952 0.080065 -3.020363
2011-07-20 07:06:56 51°13.968 2°55.608 21.0235 0.014952 0.080065 -3.020363
2011-07-20 07:07:01 51°13.967 2°55.606 20.9969 0.014952 0.080065 -3.020363
2011-07-20 07:07:06 51°13.967 2°55.604 20.9719 0.014952 0.080066 -3.020363
2011-07-20 07:07:11 51°13.966 2°55.601 20.9762 0.014952 0.080066 -3.020363
2011-07-20 07:07:16 51°13.966 2°55.598 20.9501 0.014952 0.080066 -3.020363
2011-07-20 07:07:21 51°13.966 2°55.593 20.8124 0.014952 0.080066 -3.020363
2011-07-20 07:07:26 51°13.966 2°55.587 20.9213 0.014952 0.080066 -3.020363
2011-07-20 07:07:30 51°13.966 2°55.581 20.807 0.014952 0.080067 -3.020363
2011-07-20 07:07:35 51°13.967 2°55.575 20.9214 0.014952 0.080067 -3.020363
2011-07-20 07:07:41 51°13.969 2°55.566 20.8606 0.014952 0.080067 -3.020363
2011-07-20 07:07:46 51°13.972 2°55.557 20.8875 0.014952 0.080067 -3.020363
2011-07-20 07:07:51 51°13.975 2°55.549 20.9052 0.014952 0.080067 -3.020363
2011-07-20 07:07:55 51°13.979 2°55.542 20.966 0.014952 0.080068 -3.020363
2011-07-20 07:08:00 51°13.984 2°55.534 20.9671 0.014952 0.08007 -3.020363
2011-07-20 07:08:05 51°13.99 2°55.526 20.973 0.014952 0.08007 -3.020363
2011-07-20 07:08:11 51°13.998 2°55.516 20.9755 0.014952 0.08007 -3.020363
2011-07-20 07:08:15 51°14.004 2°55.509 20.9742 0.014952 0.08007 -3.020363
2011-07-20 07:08:20 51°14.012 2°55.501 20.9676 0.014952 0.080071 -3.020363
2011-07-20 07:08:25 51°14.02 2°55.494 20.9815 0.014952 0.080071 -3.020363
2011-07-20 07:08:30 51°14.028 2°55.487 20.9822 0.014952 0.080072 -3.020363
2011-07-20 07:08:35 51°14.036 2°55.48 20.9817 0.014952 0.080072 -3.020363
2011-07-20 07:08:40 51°14.045 2°55.472 20.9786 0.014952 0.080072 -3.020363
2011-07-20 07:08:46 51°14.056 2°55.465 20.9834 0.014952 0.080073 -3.020363
2011-07-20 07:08:50 51°14.063 2°55.459 20.9846 0.014952 0.080073 -3.020363
2011-07-20 07:08:56 51°14.075 2°55.451 20.9906 0.014952 0.080073 -3.020363
2011-07-20 07:09:00 51°14.082 2°55.445 20.9872 0.014952 0.080074 -3.020363
2011-07-20 07:09:05 51°14.092 2°55.438 20.9864 0.014952 0.080074 -3.020363
2011-07-20 07:09:10 51°14.102 2°55.431 20.9935 0.014952 0.080074 -3.020363
2011-07-20 07:09:15 51°14.112 2°55.423 20.9696 0.014952 0.080074 -3.020363
2011-07-20 07:09:20 51°14.123 2°55.416 20.9798 0.014952 0.080074 -3.020363
2011-07-20 07:09:24 51°14.131 2°55.409 20.9674 0.014952 0.080075 -3.020363
2011-07-20 07:09:29 51°14.142 2°55.402 20.9688 0.014952 0.080075 -3.020363
2011-07-20 07:09:34 51°14.152 2°55.394 20.9765 0.014952 0.080076 -3.020363
2011-07-20 07:09:39 51°14.163 2°55.386 20.9864 0.014952 0.080076 -3.020363
2011-07-20 07:09:44 51°14.174 2°55.378 20.9781 0.014952 0.080076 -3.020363
2011-07-20 07:09:48 51°14.182 2°55.372 20.9735 0.014952 0.080077 -3.020363
2011-07-20 07:09:53 51°14.193 2°55.364 20.996 0.014952 0.080077 -3.020363
2011-07-20 07:09:58 51°14.204 2°55.355 21.0095 0.014952 0.080077 -3.020363
2011-07-20 07:10:04 51°14.217 2°55.345 21.0023 0.014952 0.080079 -3.020363
2011-07-20 07:10:08 51°14.226 2°55.337 20.9816 0.014952 0.080079 -3.020363
2011-07-20 07:10:13 51°14.236 2°55.327 21.006 0.014952 0.080079 -3.020363
2011-07-20 07:10:19 51°14.25 2°55.314 21.0073 0.014952 0.080079 -3.020363
2011-07-20 07:10:24 51°14.261 2°55.304 20.986 0.014952 0.08008 -3.020363
2011-07-20 07:10:29 51°14.271 2°55.292 20.9861 0.014952 0.08008 -3.020363
2011-07-20 07:10:33 51°14.28 2°55.283 20.9818 0.014952 0.080081 -3.020363
2011-07-20 07:10:38 51°14.291 2°55.27 20.9922 0.014952 0.080081 -3.020363
2011-07-20 07:10:43 51°14.302 2°55.258 20.9872 0.014952 0.080082 -3.020363
2011-07-20 07:10:48 51°14.313 2°55.245 20.9595 0.014952 0.080081 -3.020363
2011-07-20 07:10:53 51°14.324 2°55.232 20.9584 0.014952 0.080082 -3.020363
2011-07-20 07:10:58 51°14.335 2°55.219 20.9878 0.014952 0.080083 -3.020363
2011-07-20 07:11:03 51°14.346 2°55.206 20.9677 0.014952 0.080083 -3.020363
2011-07-20 07:11:08 51°14.357 2°55.193 20.9963 0.014952 0.080083 -3.020363
2011-07-20 07:11:13 51°14.369 2°55.18 20.9728 0.014952 0.080083 -3.020363
2011-07-20 07:11:17 51°14.378 2°55.169 21.0049 0.014952 0.080084 -3.020363
2011-07-20 07:11:22 51°14.39 2°55.156 20.9379 0.014952 0.080085 -3.020363
2011-07-20 07:11:27 51°14.402 2°55.142 20.9559 0.014952 0.080085 -3.020363
2011-07-20 07:11:33 51°14.416 2°55.126 20.9616 0.014952 0.080085 -3.020363
2011-07-20 07:11:37 51°14.426 2°55.115 20.9547 0.014952 0.080085 -3.020363
2011-07-20 07:11:43 51°14.441 2°55.1 20.9391 0.014952 0.080085 -3.020363
2011-07-20 07:11:48 51°14.453 2°55.086 20.9743 0.014952 0.080086 -3.020363
2011-07-20 07:11:53 51°14.466 2°55.071 20.9723 0.014952 0.080086 -3.020363
2011-07-20 07:11:57 51°14.476 2°55.06 20.9719 0.014952 0.080088 -3.020363
2011-07-20 07:12:03 51°14.491 2°55.044 20.9373 0.014952 0.080088 -3.020363
2011-07-20 07:12:08 51°14.504 2°55.029 20.9241 0.014952 0.080088 -3.020363
2011-07-20 07:12:13 51°14.518 2°55.015 20.9426 0.014952 0.080089 -3.020363
2011-07-20 07:12:18 51°14.531 2°55 21.0038 0.014952 0.080089 -3.020363
2011-07-20 07:12:22 51°14.542 2°54.988 20.9965 0.014952 0.08009 -3.020363
2011-07-20 07:12:27 51°14.554 2°54.97 20.9087 0.014952 0.08009 -3.020363
2011-07-20 07:12:33 51°14.568 2°54.945 20.9256 0.014952 0.08009 -3.020363
2011-07-20 07:12:38 51°14.579 2°54.925 20.8513 0.014952 0.08009 -3.020363
2011-07-20 07:12:43 51°14.592 2°54.905 20.8746 0.014952 0.080091 -3.020363
2011-07-20 07:12:48 51°14.604 2°54.886 20.9019 0.014952 0.080091 -3.020363
2011-07-20 07:12:53 51°14.618 2°54.868 20.9893 0.014952 0.080092 -3.020363
2011-07-20 07:12:57 51°14.629 2°54.855 19.7251 0.014952 0.080109 -3.020363
2011-07-20 07:13:03 51°14.646 2°54.834 19.3134 0.014952 0.080161 -3.020363
2011-07-20 07:13:07 51°14.657 2°54.821 18.7269 0.014952 0.080161 -3.020363
2011-07-20 07:13:13 51°14.675 2°54.802 18.4157 0.437244 2.570873 -3.020363
2011-07-20 07:13:17 51°14.687 2°54.788 18.1732 4.520727 32.199742 -3.020363
2011-07-20 07:13:23 51°14.704 2°54.769 18.0468 4.64762 33.208762 -3.020363
2011-07-20 07:13:27 51°14.716 2°54.756 17.9077 4.676056 33.584701 -3.020363
2011-07-20 07:13:32 51°14.731 2°54.74 17.8681 4.558499 32.907172 -3.020363
2011-07-20 07:13:38 51°14.749 2°54.721 17.7557 4.558499 32.907172 -3.020363
2011-07-20 07:13:43 51°14.763 2°54.705 17.7325 4.499162 32.715526 -3.020363
2011-07-20 07:13:48 51°14.778 2°54.688 17.7144 4.472614 32.898154 -3.020363
2011-07-20 07:13:53 51°14.793 2°54.671 17.6893 4.452599 33.004087 -3.020363
2011-07-20 07:13:58 51°14.807 2°54.653 17.6496 4.457997 33.300594 -3.020363
2011-07-20 07:14:03 51°14.821 2°54.635 17.6129 4.443997 33.365398 -3.020363
2011-07-20 07:14:08 51°14.835 2°54.617 17.6227 4.443997 33.365398 -3.020363
2011-07-20 07:14:12 51°14.847 2°54.603 17.5995 4.420662 33.32334 -3.020363
2011-07-20 07:14:18 51°14.864 2°54.583 17.6057 4.418382 33.401026 -3.020363
2011-07-20 07:14:23 51°14.879 2°54.566 17.5671 4.420354 33.485294 -3.020363
2011-07-20 07:14:28 51°14.894 2°54.551 17.5749 4.409775 33.442507 -3.020363
2011-07-20 07:14:33 51°14.909 2°54.536 17.5674 4.398886 33.401568 -3.020363
2011-07-20 07:14:37 51°14.922 2°54.524 17.5459 4.398886 33.401568 -3.020363
2011-07-20 07:14:42 51°14.937 2°54.51 17.5492 4.399301 33.450157 -3.020363
2011-07-20 07:14:47 51°14.953 2°54.497 17.4909 4.412059 33.584956 -3.020363
2011-07-20 07:14:53 51°14.972 2°54.48 17.4696 4.416519 33.646651 -3.020363
2011-07-20 07:14:57 51°14.984 2°54.469 17.4687 4.414653 33.650517 -3.020363
2011-07-20 07:15:02 51°15 2°54.456 17.4637 4.411334 33.630126 -3.020363
2011-07-20 07:15:08 51°15.018 2°54.437 17.4495 4.411334 33.630126 -3.020363
2011-07-20 07:15:13 51°15.032 2°54.421 17.4578 4.412683 33.660771 -3.020363
2011-07-20 07:15:18 51°15.047 2°54.404 17.4564 4.416417 33.710502 -3.020363
2011-07-20 07:15:22 51°15.058 2°54.391 17.4251 4.410609 33.688027 -3.020363
2011-07-20 07:15:28 51°15.075 2°54.37 17.4213 4.417559 33.767331 -3.020363
2011-07-20 07:15:33 51°15.089 2°54.352 17.4061 4.41621 33.771078 -3.020363
2011-07-20 07:15:38 51°15.102 2°54.334 17.4098 4.41621 33.771078 -3.020363
2011-07-20 07:15:43 51°15.116 2°54.316 17.4059 4.4187 33.805684 -3.020363
2011-07-20 07:15:47 51°15.126 2°54.301 17.4133 4.416937 33.799242 -3.020363
2011-07-20 07:15:53 51°15.143 2°54.279 17.4022 4.419945 33.834994 -3.020363
2011-07-20 07:15:58 51°15.156 2°54.261 17.3891 4.422227 33.868556 -3.020363
2011-07-20 07:16:03 51°15.17 2°54.243 17.3856 4.420257 33.860345 -3.020363
2011-07-20 07:16:07 51°15.181 2°54.229 17.3897 4.420257 33.860345 -3.020363
2011-07-20 07:16:12 51°15.195 2°54.212 17.3813 4.423576 33.898155 -3.020363
2011-07-20 07:16:18 51°15.212 2°54.191 17.3658 4.424717 33.914629 -3.020363
2011-07-20 07:16:23 51°15.226 2°54.174 17.3632 4.427621 33.94356 -3.020363
2011-07-20 07:16:27 51°15.237 2°54.16 17.374 4.431148 33.979853 -3.020363
2011-07-20 07:16:32 51°15.251 2°54.143 17.3556 4.434052 34.012164 -3.020363
2011-07-20 07:16:38 51°15.268 2°54.123 17.3458 4.434052 34.012164 -3.020363
2011-07-20 07:16:43 51°15.282 2°54.105 17.3409 4.433015 34.007288 -3.020363
2011-07-20 07:16:48 51°15.296 2°54.088 17.3283 4.436749 34.0454 -3.020363
2011-07-20 07:16:52 51°15.307 2°54.074 17.3394 4.438928 34.073531 -3.020363
2011-07-20 07:16:57 51°15.32 2°54.056 17.3277 4.440276 34.090505 -3.020363
2011-07-20 07:17:02 51°15.333 2°54.037 17.3287 4.443596 34.121727 -3.020363
2011-07-20 07:17:07 51°15.347 2°54.019 17.3105 4.443596 34.121727 -3.020363
2011-07-20 07:17:12 51°15.36 2°54.001 17.3112 4.447434 34.160794 -3.020363
2011-07-20 07:17:18 51°15.377 2°53.98 17.3059 4.449405 34.185173 -3.020363
2011-07-20 07:17:23 51°15.391 2°53.962 17.3116 4.450338 34.202671 -3.020363
2011-07-20 07:17:28 51°15.404 2°53.944 17.299 4.451064 34.216364 -3.020363
2011-07-20 07:17:33 51°15.418 2°53.926 17.3043 4.459985 34.297215 -3.020363
2011-07-20 07:17:37 51°15.429 2°53.911 17.295 4.459985 34.297215 -3.020363
2011-07-20 07:17:43 51°15.445 2°53.89 17.296 4.460608 34.308684 -3.020363
2011-07-20 07:17:48 51°15.458 2°53.872 17.2898 4.46372 34.341602 -3.020363
2011-07-20 07:17:53 51°15.472 2°53.854 17.2977 4.463305 34.342107 -3.020363
2011-07-20 07:17:57 51°15.483 2°53.84 17.2917 4.466417 34.370959 -3.020363
2011-07-20 07:18:02 51°15.497 2°53.822 17.2935 4.466832 34.378619 -3.020363
2011-07-20 07:18:07 51°15.511 2°53.805 17.2927 4.466832 34.378619 -3.020363
2011-07-20 07:18:14 51°15.531 2°53.783 17.2978 4.468907 34.399905 -3.020363
2011-07-20 07:18:18 51°15.543 2°53.771 17.2914 4.469425 34.408465 -3.020363
2011-07-20 07:18:23 51°15.558 2°53.756 17.2881 4.470151 34.417452 -3.020363
2011-07-20 07:18:28 51°15.573 2°53.741 17.2878 4.468596 34.405401 -3.020363
2011-07-20 07:18:33 51°15.588 2°53.727 17.2862 4.46901 34.40966 -3.020363
2011-07-20 07:18:38 51°15.603 2°53.713 17.2806 4.46901 34.40966 -3.020363
2011-07-20 07:18:42 51°15.615 2°53.701 17.2789 4.470566 34.423757 -3.020363
2011-07-20 07:18:48 51°15.633 2°53.684 17.2793 4.470774 34.425546 -3.020363
2011-07-20 07:18:53 51°15.648 2°53.669 17.278 4.471915 34.437432 -3.020363
2011-07-20 07:18:58 51°15.663 2°53.654 17.2766 4.469633 34.420482 -3.020363
2011-07-20 07:19:03 51°15.678 2°53.639 17.2781 4.469011 34.41648 -3.020363
2011-07-20 07:19:08 51°15.693 2°53.624 17.2758 4.469011 34.41648 -3.020363
2011-07-20 07:19:13 51°15.707 2°53.608 17.2742 4.469114 34.420103 -3.020363
2011-07-20 07:19:18 51°15.722 2°53.591 17.273 4.464861 34.386837 -3.020363
2011-07-20 07:19:22 51°15.733 2°53.578 17.273 4.466521 34.403878 -3.020363
2011-07-20 07:19:27 51°15.747 2°53.562 17.2717 4.468181 34.419557 -3.020363
2011-07-20 07:19:33 51°15.764 2°53.542 17.2758 4.467766 34.41666 -3.020363
2011-07-20 07:19:38 51°15.779 2°53.527 17.2719 4.467766 34.41666 -3.020363
2011-07-20 07:19:43 51°15.794 2°53.511 17.2726 4.465276 34.396552 -3.020363
2011-07-20 07:19:47 51°15.806 2°53.5 17.2715 4.465484 34.399023 -3.020363
2011-07-20 07:19:53 51°15.825 2°53.484 17.2729 4.464654 34.39323 -3.020363
2011-07-20 07:19:58 51°15.84 2°53.471 17.2742 4.466418 34.409805 -3.020363
2011-07-20 07:20:03 51°15.856 2°53.46 17.2803 4.465691 34.404224 -3.020363
2011-07-20 07:20:07 51°15.868 2°53.451 17.2763 4.465691 34.404224 -3.020363
2011-07-20 07:20:12 51°15.885 2°53.441 17.274 4.465899 34.406696 -3.020363
2011-07-20 07:20:18 51°15.904 2°53.428 17.2762 4.466521 34.412747 -3.020363
2011-07-20 07:20:23 51°15.921 2°53.419 17.2749 4.464654 34.395958 -3.020363
2011-07-20 07:20:27 51°15.934 2°53.412 17.2719 4.464032 34.391271 -3.020363
2011-07-20 07:20:32 51°15.95 2°53.402 17.2746 4.461127 34.364174 -3.020363
2011-07-20 07:20:38 51°15.97 2°53.391 17.2722 4.461127 34.364174 -3.020363
2011-07-20 07:20:43 51°15.986 2°53.381 17.2701 4.457289 34.331076 -3.020363
2011-07-20 07:20:47 51°15.999 2°53.373 17.2761 4.461231 34.364388 -3.020363
2011-07-20 07:20:53 51°16.019 2°53.362 17.2749 4.461024 34.363961 -3.020363
2011-07-20 07:20:58 51°16.036 2°53.353 17.2723 4.466314 34.410957 -3.020363
2011-07-20 07:21:03 51°16.052 2°53.344 17.2664 4.463409 34.386585 -3.020363
2011-07-20 07:21:08 51°16.068 2°53.335 17.2678 4.463409 34.386585 -3.020363
2011-07-20 07:21:13 51°16.085 2°53.326 17.2673 4.466729 34.415902 -3.020363
2011-07-20 07:21:18 51°16.102 2°53.317 17.2671 4.463721 34.390633 -3.020363
2011-07-20 07:21:23 51°16.118 2°53.308 17.2665 4.463928 34.391058 -3.020363
2011-07-20 07:21:28 51°16.135 2°53.3 17.2763 4.463409 34.386585 -3.020363
2011-07-20 07:21:33 51°16.152 2°53.293 17.2671 4.463098 34.385264 -3.020363
2011-07-20 07:21:37 51°16.166 2°53.288 17.2644 4.463098 34.385264 -3.020363
2011-07-20 07:21:41 51°16.179 2°53.283 17.2596 4.463098 34.38731 -3.020363
2011-07-20 07:21:48 51°16.203 2°53.274 17.2621 4.462476 34.383305 -3.020363
2011-07-20 07:21:53 51°16.22 2°53.268 17.2587 4.469011 34.439689 -3.020363
2011-07-20 07:21:57 51°16.233 2°53.263 17.257 4.470982 34.456697 -3.020363
2011-07-20 07:22:01 51°16.247 2°53.259 17.2556 4.470878 34.454435 -3.020363
2011-07-20 07:22:07 51°16.267 2°53.251 17.2609 4.470878 34.454435 -3.020363
2011-07-20 07:22:13 51°16.288 2°53.244 17.2563 4.472123 34.467228 -3.020363
2011-07-20 07:22:17 51°16.302 2°53.239 17.2575 4.469115 34.444 -3.020363
2011-07-20 07:22:23 51°16.322 2°53.232 17.2567 4.471293 34.464852 -3.020363
2011-07-20 07:22:27 51°16.336 2°53.227 17.2531 4.469011 34.447205 -3.020363
2011-07-20 07:22:33 51°16.356 2°53.22 17.2575 4.473887 34.491342 -3.020363
2011-07-20 07:22:37 51°16.37 2°53.214 17.2578 4.473887 34.491342 -3.020363
2011-07-20 07:22:43 51°16.39 2°53.206 17.2583 4.474198 34.494713 -3.020363
2011-07-20 07:22:47 51°16.403 2°53.201 17.2554 4.473264 34.486653 -3.020363
2011-07-20 07:22:52 51°16.42 2°53.194 17.2616 4.474302 34.496293 -3.020363
2011-07-20 07:22:57 51°16.437 2°53.188 17.2533 4.47316 34.487126 -3.020363
2011-07-20 07:23:03 51°16.457 2°53.179 17.2519 4.47316 34.487811 -3.020363
2011-07-20 07:23:08 51°16.474 2°53.171 17.2485 4.47316 34.487811 -3.020363
2011-07-20 07:23:13 51°16.491 2°53.163 17.248 4.474716 34.501245 -3.020363
2011-07-20 07:23:18 51°16.507 2°53.154 17.2458 4.472746 34.483544 -3.020363
2011-07-20 07:23:22 51°16.521 2°53.148 17.2417 4.47316 34.486442 -3.020363
2011-07-20 07:23:27 51°16.537 2°53.14 17.2437 4.472849 34.48444 -3.020363
2011-07-20 07:23:32 51°16.554 2°53.133 17.2393 4.476065 34.512888 -3.020363
2011-07-20 07:23:38 51°16.574 2°53.125 17.2391 4.476065 34.512888 -3.020363
2011-07-20 07:23:43 51°16.592 2°53.119 17.2362 4.477102 34.524586 -3.020363
2011-07-20 07:23:47 51°16.605 2°53.115 17.2298 4.477517 34.530225 -3.020363
2011-07-20 07:23:53 51°16.626 2°53.11 17.2289 4.477829 34.535655 -3.020363
2011-07-20 07:23:58 51°16.643 2°53.106 17.2213 4.477725 34.53613 -3.020363
2011-07-20 07:24:03 51°16.66 2°53.102 17.2185 4.476895 34.529648 -3.020363
2011-07-20 07:24:07 51°16.674 2°53.099 17.2139 4.476895 34.529648 -3.020363
2011-07-20 07:24:12 51°16.691 2°53.095 17.2084 4.477206 34.535078 -3.020363
2011-07-20 07:24:17 51°16.708 2°53.091 17.2078 4.47814 34.544514 -3.020363
2011-07-20 07:24:23 51°16.729 2°53.086 17.2023 4.478555 34.551529 -3.020363
2011-07-20 07:24:27 51°16.743 2°53.083 17.2015 4.478762 34.556753 -3.020363
2011-07-20 07:24:32 51°16.759 2°53.079 17.1988 4.478244 34.555702 -3.020363
2011-07-20 07:24:37 51°16.776 2°53.075 17.1974 4.478244 34.555702 -3.020363
2011-07-20 07:24:43 51°16.797 2°53.069 17.1986 4.478451 34.5623 -3.020363
2011-07-20 07:24:47 51°16.811 2°53.065 17.1884 4.478555 34.567317 -3.020363
2011-07-20 07:24:51 51°16.824 2°53.061 17.1848 4.47814 34.567165 -3.020363
2011-07-20 07:24:57 51°16.844 2°53.056 17.1872 4.478452 34.573977 -3.020363
2011-07-20 07:25:02 51°16.861 2°53.051 17.1881 4.477311 34.567547 -3.020363
2011-07-20 07:25:07 51°16.878 2°53.046 17.1855 4.477311 34.567547 -3.020363
2011-07-20 07:25:11 51°16.891 2°53.042 17.1803 4.477726 34.573883 -3.020363
2011-07-20 07:25:17 51°16.911 2°53.036 17.1797 4.477933 34.578426 -3.020363
2011-07-20 07:25:23 51°16.931 2°53.031 17.1705 4.477311 34.576481 -3.020363
2011-07-20 07:25:27 51°16.945 2°53.027 17.1704 4.477829 34.584404 -3.020363
2011-07-20 07:25:31 51°16.958 2°53.024 17.1689 4.477726 34.584883 -3.020363
2011-07-20 07:25:37 51°16.979 2°53.021 17.1675 4.477726 34.584883 -3.020363
2011-07-20 07:25:43 51°16.999 2°53.018 17.1641 4.444221 34.295941 -3.020363
2011-07-20 07:25:47 51°17.013 2°53.017 17.1654 4.476792 34.57887 -3.020363
2011-07-20 07:25:51 51°17.027 2°53.016 17.1599 4.476688 34.581411 -3.020363
2011-07-20 07:25:57 51°17.047 2°53.017 17.1571 4.476896 34.586645 -3.020363
2011-07-20 07:26:02 51°17.064 2°53.018 17.1518 4.462685 34.466467 -3.020363
2011-07-20 07:26:07 51°17.082 2°53.019 17.1468 4.462685 34.466467 -3.020363
2011-07-20 07:26:11 51°17.095 2°53.022 17.1505 4.474303 34.569023 -3.020363
2011-07-20 07:26:17 51°17.116 2°53.025 17.1361 4.472021 34.55134 -3.020363
2011-07-20 07:26:22 51°17.133 2°53.03 17.1381 4.473992 34.571145 -3.020363
2011-07-20 07:26:27 51°17.15 2°53.034 17.1276 4.476481 34.594754 -3.020363
2011-07-20 07:26:32 51°17.167 2°53.038 17.1269 4.473577 34.572369 -3.020363
2011-07-20 07:26:37 51°17.184 2°53.043 17.13 4.473577 34.572369 -3.020363
2011-07-20 07:26:42 51°17.2 2°53.049 17.1203 4.474925 34.588171 -3.020363
2011-07-20 07:26:47 51°17.217 2°53.055 17.118 4.473784 34.581735 -3.020363
2011-07-20 07:26:52 51°17.234 2°53.061 17.1107 4.475133 34.59823 -3.020363
2011-07-20 07:26:57 51°17.25 2°53.067 17.1049 4.474199 34.59428 -3.020363
2011-07-20 07:27:02 51°17.267 2°53.073 17.1026 4.473888 34.595718 -3.020363
2011-07-20 07:27:07 51°17.283 2°53.079 17.1041 4.473888 34.595718 -3.020363
2011-07-20 07:27:11 51°17.297 2°53.085 17.0986 4.471503 34.57919 -3.020363
2011-07-20 07:27:17 51°17.317 2°53.094 17.099 4.473474 34.599016 -3.020363
2011-07-20 07:27:22 51°17.333 2°53.102 17.098 4.473474 34.603151 -3.020363
2011-07-20 07:27:27 51°17.349 2°53.11 17.0929 4.473059 34.604383 -3.020363
2011-07-20 07:27:31 51°17.362 2°53.117 17.0969 4.472125 34.600432 -3.020363
2011-07-20 07:27:37 51°17.381 2°53.128 17.0948 4.472125 34.600432 -3.020363
2011-07-20 07:27:43 51°17.4 2°53.139 17.0881 4.472229 34.604778 -3.020363
2011-07-20 07:27:47 51°17.413 2°53.146 17.0866 4.470673 34.594054 -3.020363
2011-07-20 07:27:51 51°17.426 2°53.154 17.0861 4.468806 34.579942 -3.020363
2011-07-20 07:27:57 51°17.445 2°53.166 17.0836 4.469532 34.588303 -3.020363
2011-07-20 07:28:03 51°17.464 2°53.179 17.0846 4.467769 34.575089 -3.020363
2011-07-20 07:28:07 51°17.476 2°53.187 17.079 4.467769 34.575089 -3.020363
2011-07-20 07:28:11 51°17.488 2°53.197 17.0777 4.46279 34.534009 -3.020363
2011-07-20 07:28:17 51°17.507 2°53.209 17.0782 4.463619 34.543266 -3.020363
2011-07-20 07:28:23 51°17.526 2°53.223 17.0765 4.469532 34.596579 -3.020363
2011-07-20 07:28:28 51°17.541 2°53.234 17.0805 4.469117 34.594363 -3.020363
2011-07-20 07:28:33 51°17.556 2°53.245 17.0773 4.469221 34.598022 -3.020363
2011-07-20 07:28:38 51°17.572 2°53.256 17.0739 4.469221 34.598022 -3.020363
2011-07-20 07:28:43 51°17.588 2°53.266 17.0716 4.468702 34.595595 -3.020363
2011-07-20 07:28:48 51°17.603 2°53.277 17.0757 4.468599 34.597456 -3.020363
2011-07-20 07:28:53 51°17.618 2°53.288 17.0735 4.468599 34.598146 -3.020363
2011-07-20 07:28:58 51°17.634 2°53.299 17.0726 4.468495 34.598627 -3.020363
2011-07-20 07:29:03 51°17.649 2°53.311 17.0737 4.468599 34.600217 -3.020363
2011-07-20 07:29:08 51°17.664 2°53.323 17.075 4.468599 34.600217 -3.020363
2011-07-20 07:29:12 51°17.676 2°53.332 17.0744 4.467976 34.59551 -3.020363
2011-07-20 07:29:18 51°17.693 2°53.349 17.0704 4.46808 34.599171 -3.020363
2011-07-20 07:29:23 51°17.707 2°53.364 17.0729 4.467873 34.598062 -3.020363
2011-07-20 07:29:28 51°17.721 2°53.38 17.0703 4.469221 34.609756 -3.020363
2011-07-20 07:29:32 51°17.731 2°53.394 17.0703 4.468703 34.605258 -3.020363
2011-07-20 07:29:38 51°17.747 2°53.414 17.0704 4.468703 34.605258 -3.020363
2011-07-20 07:29:43 51°17.759 2°53.432 17.0733 4.468599 34.604359 -3.020363
2011-07-20 07:29:48 51°17.771 2°53.451 17.0703 4.468495 34.603459 -3.020363
2011-07-20 07:29:52 51°17.781 2°53.466 17.0693 4.468391 34.60256 -3.020363
2011-07-20 07:29:58 51°17.795 2°53.489 17.0718 4.469118 34.608857 -3.020363
2011-07-20 07:30:03 51°17.806 2°53.508 17.0686 4.469118 34.609547 -3.020363
2011-07-20 07:30:08 51°17.818 2°53.527 17.0662 4.469118 34.609547 -3.020363
2011-07-20 07:30:12 51°17.828 2°53.542 17.0672 4.469014 34.610029 -3.020363
2011-07-20 07:30:17 51°17.84 2°53.56 17.068 4.469014 34.610029 -3.020363
2011-07-20 07:30:23 51°17.853 2°53.584 17.0724 4.469014 34.610029 -3.020363
2011-07-20 07:30:28 51°17.865 2°53.604 17.0709 4.468703 34.60802 -3.020363
2011-07-20 07:30:32 51°17.873 2°53.62 17.0709 4.468806 34.609611 -3.020363
2011-07-20 07:30:37 51°17.883 2°53.642 17.0698 4.468806 34.609611 -3.020363
2011-07-20 07:30:42 51°17.893 2°53.663 17.0681 4.468806 34.610301 -3.020363
2011-07-20 07:30:48 51°17.904 2°53.689 17.0682 4.468599 34.609883 -3.020363
2011-07-20 07:30:52 51°17.912 2°53.707 17.0678 4.468703 34.610783 -3.020363
2011-07-20 07:30:57 51°17.921 2°53.729 17.0673 4.468703 34.609402 -3.020363
2011-07-20 07:31:02 51°17.931 2°53.751 17.0685 4.468703 34.609402 -3.020363
2011-07-20 07:31:07 51°17.94 2°53.773 17.0679 4.468703 34.609402 -3.020363
2011-07-20 07:31:12 51°17.949 2°53.796 17.0689 4.468599 34.607811 -3.020363
2011-07-20 07:31:17 51°17.958 2°53.818 17.0666 4.468599 34.609193 -3.020363
2011-07-20 07:31:23 51°17.969 2°53.843 17.0645 4.468599 34.609193 -3.020363
2011-07-20 07:31:27 51°17.977 2°53.861 17.0672 4.468392 34.608084 -3.020363
2011-07-20 07:31:32 51°17.988 2°53.882 17.0661 4.468599 34.609883 -3.020363
2011-07-20 07:31:37 51°17.998 2°53.902 17.0677 4.468599 34.609883 -3.020363
2011-07-20 07:31:43 51°18.011 2°53.927 17.0671 4.468495 34.608984 -3.020363
2011-07-20 07:31:47 51°18.019 2°53.943 17.0689 4.468495 34.610365 -3.020363
2011-07-20 07:31:52 51°18.03 2°53.963 17.0737 4.468392 34.609465 -3.020363
2011-07-20 07:31:57 51°18.041 2°53.983 17.0687 4.468288 34.609256 -3.020363
2011-07-20 07:32:03 51°18.054 2°54.007 17.0663 4.468288 34.609947 -3.020363
2011-07-20 07:32:07 51°18.063 2°54.024 17.0689 4.468288 34.609947 -3.020363
2011-07-20 07:32:12 51°18.073 2°54.044 17.0684 4.468184 34.609047 -3.020363
2011-07-20 07:32:17 51°18.084 2°54.065 17.0686 4.468184 34.609738 -3.020363
2011-07-20 07:32:23 51°18.096 2°54.089 17.0704 4.468184 34.608356 -3.020363
2011-07-20 07:32:27 51°18.105 2°54.106 17.0713 4.468184 34.606975 -3.020363
2011-07-20 07:32:32 51°18.115 2°54.127 17.0694 4.467562 34.601577 -3.020363
2011-07-20 07:32:37 51°18.124 2°54.149 17.0713 4.467562 34.601577 -3.020363
2011-07-20 07:32:43 51°18.135 2°54.176 17.0706 4.468288 34.607875 -3.020363
2011-07-20 07:32:47 51°18.142 2°54.193 17.0706 4.468288 34.607875 -3.020363
2011-07-20 07:32:52 51°18.151 2°54.216 17.0658 4.468288 34.607875 -3.020363
2011-07-20 07:32:56 51°18.158 2°54.233 17.0721 4.467977 34.605176 -3.020363
2011-07-20 07:33:02 51°18.169 2°54.26 17.0681 4.468392 34.608084 -3.020363
2011-07-20 07:33:07 51°18.178 2°54.282 17.0694 4.468392 34.608084 -3.020363
2011-07-20 07:33:12 51°18.187 2°54.304 17.0686 4.468392 34.607393 -3.020363
2011-07-20 07:33:16 51°18.195 2°54.322 17.0688 4.468392 34.607393 -3.020363
2011-07-20 07:33:22 51°18.206 2°54.348 17.068 4.468288 34.607184 -3.020363
2011-07-20 07:33:27 51°18.216 2°54.37 17.0697 4.468392 34.608084 -3.020363
2011-07-20 07:33:32 51°18.225 2°54.392 17.0685 4.468288 34.607184 -3.020363
2011-07-20 07:33:36 51°18.233 2°54.408 17.0681 4.468288 34.607184 -3.020363
2011-07-20 07:33:42 51°18.246 2°54.434 17.0697 4.468288 34.607875 -3.020363
2011-07-20 07:33:47 51°18.257 2°54.454 17.0702 4.468288 34.607184 -3.020363
2011-07-20 07:33:52 51°18.268 2°54.474 17.0735 4.468184 34.606975 -3.020363
2011-07-20 07:33:57 51°18.278 2°54.495 17.0707 4.468184 34.606975 -3.020363
2011-07-20 07:34:02 51°18.289 2°54.515 17.0735 4.468184 34.607666 -3.020363
2011-07-20 07:34:07 51°18.3 2°54.534 17.0742 4.468184 34.607666 -3.020363
2011-07-20 07:34:12 51°18.311 2°54.555 17.0743 4.468184 34.607666 -3.020363
2011-07-20 07:34:17 51°18.322 2°54.575 17.075 4.46808 34.606766 -3.020363
2011-07-20 07:34:23 51°18.334 2°54.599 17.0756 4.46808 34.606075 -3.020363
2011-07-20 07:34:27 51°18.343 2°54.615 17.0783 4.468184 34.606284 -3.020363
2011-07-20 07:34:32 51°18.354 2°54.636 17.0751 4.468184 34.605594 -3.020363
2011-07-20 07:34:37 51°18.364 2°54.656 17.0737 4.468184 34.605594 -3.020363
2011-07-20 07:34:43 51°18.377 2°54.681 17.0768 4.468184 34.604903 -3.020363
2011-07-20 07:34:47 51°18.385 2°54.697 17.0753 4.468288 34.605112 -3.020363
2011-07-20 07:34:52 51°18.395 2°54.719 17.0762 4.468288 34.604422 -3.020363
2011-07-20 07:34:57 51°18.404 2°54.741 17.0783 4.468288 34.603731 -3.020363
2011-07-20 07:35:02 51°18.414 2°54.762 17.0766 3.932287 30.002963 -3.020363
2011-07-20 07:35:07 51°18.423 2°54.784 17.0758 3.932287 30.002963 -3.020363
2011-07-20 07:35:12 51°18.432 2°54.806 17.0794 3.965653 30.286493 -3.020363
2011-07-20 07:35:17 51°18.441 2°54.828 17.076 4.040684 30.925441 -3.020363
2011-07-20 07:35:22 51°18.45 2°54.85 17.0778 4.469325 34.611346 -3.020363
2011-07-20 07:35:27 51°18.46 2°54.872 17.0764 4.469429 34.612246 -3.020363
2011-07-20 07:35:32 51°18.469 2°54.894 17.076 4.469532 34.612455 -3.020363
2011-07-20 07:35:36 51°18.477 2°54.911 17.0737 4.469532 34.612455 -3.020363
2011-07-20 07:35:42 51°18.488 2°54.937 17.0772 4.469429 34.611555 -3.020363
2011-07-20 07:35:47 51°18.497 2°54.959 17.0772 4.469532 34.612455 -3.020363
2011-07-20 07:35:52 51°18.507 2°54.981 17.0759 4.469532 34.612455 -3.020363
2011-07-20 07:35:56 51°18.515 2°54.998 17.0821 4.469532 34.612455 -3.020363
2011-07-20 07:36:02 51°18.526 2°55.025 17.0808 4.469532 34.612455 -3.020363
2011-07-20 07:36:08 51°18.537 2°55.05 17.0811 4.469532 34.612455 -3.020363
2011-07-20 07:36:12 51°18.544 2°55.068 17.0808 4.469532 34.613146 -3.020363
2011-07-20 07:36:17 51°18.554 2°55.089 17.0808 4.469429 34.612246 -3.020363
2011-07-20 07:36:23 51°18.566 2°55.115 17.0832 4.469429 34.612246 -3.020363
2011-07-20 07:36:28 51°18.576 2°55.137 17.0837 4.469429 34.611555 -3.020363
2011-07-20 07:36:32 51°18.584 2°55.153 17.084 4.469532 34.611074 -3.020363
2011-07-20 07:36:37 51°18.594 2°55.174 17.0849 4.469532 34.611074 -3.020363
2011-07-20 07:36:42 51°18.606 2°55.194 17.0841 4.469636 34.611283 -3.020363
2011-07-20 07:36:47 51°18.617 2°55.214 17.0851 4.469636 34.610592 -3.020363
2011-07-20 07:36:52 51°18.627 2°55.233 17.0859 4.469636 34.610592 -3.020363
2011-07-20 07:36:57 51°18.638 2°55.253 17.0879 4.46974 34.611492 -3.020363
2011-07-20 07:37:03 51°18.649 2°55.279 17.0879 4.469844 34.611701 -3.020363
2011-07-20 07:37:07 51°18.657 2°55.296 17.0867 4.469844 34.611701 -3.020363
2011-07-20 07:37:12 51°18.665 2°55.318 17.0856 4.469844 34.611011 -3.020363
2011-07-20 07:37:17 51°18.674 2°55.341 17.0882 4.469947 34.61122 -3.020363
2011-07-20 07:37:22 51°18.682 2°55.365 17.0856 4.469947 34.610529 -3.020363
2011-07-20 07:37:27 51°18.689 2°55.388 17.0836 4.470051 34.610048 -3.020363
2011-07-20 07:37:32 51°18.696 2°55.412 17.0812 4.470155 34.610257 -3.020363
2011-07-20 07:37:37 51°18.702 2°55.436 17.0806 4.470155 34.610257 -3.020363
2011-07-20 07:37:42 51°18.709 2°55.461 17.0809 4.470258 34.609776 -3.020363
2011-07-20 07:37:47 51°18.715 2°55.485 17.079 4.470258 34.609776 -3.020363
2011-07-20 07:37:52 51°18.721 2°55.509 17.0778 4.470258 34.609776 -3.020363
2011-07-20 07:37:57 51°18.728 2°55.533 17.0787 4.470258 34.610466 -3.020363
2011-07-20 07:38:02 51°18.735 2°55.557 17.0788 4.470155 34.610947 -3.020363
2011-07-20 07:38:07 51°18.741 2°55.581 17.0755 4.470155 34.610947 -3.020363
2011-07-20 07:38:12 51°18.748 2°55.605 17.0761 4.469947 34.610529 -3.020363
2011-07-20 07:38:16 51°18.754 2°55.624 17.0779 4.469947 34.61191 -3.020363
2011-07-20 07:38:22 51°18.762 2°55.653 17.0814 4.469636 34.610592 -3.020363
2011-07-20 07:38:27 51°18.768 2°55.677 17.0793 4.469636 34.610592 -3.020363
2011-07-20 07:38:32 51°18.775 2°55.701 17.0794 4.469532 34.611074 -3.020363
2011-07-20 07:38:36 51°18.78 2°55.721 17.0754 4.469532 34.611074 -3.020363
2011-07-20 07:38:42 51°18.788 2°55.749 17.0744 4.469429 34.610174 -3.020363
2011-07-20 07:38:48 51°18.796 2°55.778 17.0757 4.469325 34.610656 -3.020363
2011-07-20 07:38:52 51°18.802 2°55.797 17.0747 4.469325 34.609965 -3.020363
2011-07-20 07:38:57 51°18.81 2°55.819 17.0755 4.469221 34.608375 -3.020363
2011-07-20 07:39:02 51°18.817 2°55.842 17.0773 4.469221 34.608375 -3.020363
2011-07-20 07:39:08 51°18.827 2°55.87 17.0746 4.469221 34.608375 -3.020363
2011-07-20 07:39:12 51°18.834 2°55.888 17.0787 4.469118 34.608166 -3.020363
2011-07-20 07:39:17 51°18.842 2°55.91 17.0779 4.469118 34.608857 -3.020363
2011-07-20 07:39:22 51°18.85 2°55.933 17.0787 4.469014 34.609338 -3.020363
2011-07-20 07:39:28 51°18.859 2°55.961 17.0826 4.469014 34.610029 -3.020363
2011-07-20 07:39:32 51°18.865 2°55.979 17.0829 4.469014 34.609338 -3.020363
2011-07-20 07:39:37 51°18.873 2°56.002 17.08 4.469014 34.609338 -3.020363
2011-07-20 07:39:42 51°18.881 2°56.026 17.0812 4.469014 34.609338 -3.020363
2011-07-20 07:39:48 51°18.889 2°56.055 17.0797 4.469014 34.609338 -3.020363
2011-07-20 07:39:52 51°18.894 2°56.074 17.0787 4.469014 34.607957 -3.020363
2011-07-20 07:39:57 51°18.901 2°56.098 17.0786 4.469014 34.606576 -3.020363
2011-07-20 07:40:02 51°18.907 2°56.121 17.0801 4.469221 34.606994 -3.020363
2011-07-20 07:40:07 51°18.913 2°56.145 17.0771 4.469221 34.606994 -3.020363
2011-07-20 07:40:12 51°18.92 2°56.17 17.0753 4.469221 34.606304 -3.020363
2011-07-20 07:40:17 51°18.927 2°56.194 17.0786 4.469325 34.607204 -3.020363
2011-07-20 07:40:22 51°18.933 2°56.218 17.076 4.469221 34.606304 -3.020363
2011-07-20 07:40:27 51°18.94 2°56.241 17.0753 4.469221 34.606994 -3.020363
2011-07-20 07:40:32 51°18.947 2°56.265 17.075 4.469221 34.607685 -3.020363
2011-07-20 07:40:37 51°18.954 2°56.288 17.0767 4.469221 34.607685 -3.020363
2011-07-20 07:40:42 51°18.962 2°56.311 17.0775 4.469118 34.607476 -3.020363
2011-07-20 07:40:47 51°18.97 2°56.334 17.0779 4.469118 34.608166 -3.020363
2011-07-20 07:40:52 51°18.978 2°56.357 17.0775 4.469014 34.607267 -3.020363
2011-07-20 07:40:56 51°18.984 2°56.376 17.0779 4.469014 34.608648 -3.020363
2011-07-20 07:41:02 51°18.994 2°56.403 17.0783 4.46891 34.607748 -3.020363
2011-07-20 07:41:07 51°19.002 2°56.426 17.0792 4.46891 34.607748 -3.020363
2011-07-20 07:41:12 51°19.01 2°56.448 17.078 4.468806 34.606848 -3.020363
2011-07-20 07:41:16 51°19.017 2°56.467 17.0783 4.468806 34.606158 -3.020363
2011-07-20 07:41:22 51°19.026 2°56.494 17.0789 4.468806 34.606158 -3.020363
2011-07-20 07:41:28 51°19.035 2°56.522 17.0779 4.468806 34.606158 -3.020363
2011-07-20 07:41:32 51°19.041 2°56.54 17.0776 4.468806 34.605468 -3.020363
2011-07-20 07:41:36 51°19.047 2°56.559 17.0819 4.468806 34.605468 -3.020363
2011-07-20 07:41:42 51°19.055 2°56.587 17.0749 4.468806 34.605468 -3.020363
2011-07-20 07:41:48 51°19.063 2°56.616 17.0734 4.468806 34.606158 -3.020363
2011-07-20 07:41:52 51°19.068 2°56.635 17.0746 4.468806 34.605468 -3.020363
2011-07-20 07:41:57 51°19.074 2°56.66 17.0778 4.468806 34.604777 -3.020363
2011-07-20 07:42:02 51°19.08 2°56.683 17.0755 4.468806 34.605468 -3.020363
2011-07-20 07:42:08 51°19.088 2°56.712 17.0726 4.468806 34.605468 -3.020363
2011-07-20 07:42:12 51°19.094 2°56.731 17.0737 4.468806 34.604777 -3.020363
2011-07-20 07:42:17 51°19.101 2°56.754 17.0725 4.468599 34.603668 -3.020363
2011-07-20 07:42:22 51°19.108 2°56.777 17.0753 4.468703 34.605949 -3.020363
2011-07-20 07:42:27 51°19.116 2°56.8 17.0797 4.468599 34.605049 -3.020363
2011-07-20 07:42:32 51°19.123 2°56.823 17.0783 4.468495 34.60484 -3.020363
2011-07-20 07:42:37 51°19.131 2°56.847 17.0793 4.468495 34.60484 -3.020363
2011-07-20 07:42:42 51°19.138 2°56.87 17.0776 4.468495 34.605531 -3.020363
2011-07-20 07:42:47 51°19.145 2°56.894 17.0797 4.468391 34.606012 -3.020363
2011-07-20 07:42:52 51°19.152 2°56.917 17.077 4.468288 34.605112 -3.020363
2011-07-20 07:42:57 51°19.159 2°56.941 17.0768 4.468391 34.604631 -3.020363
2011-07-20 07:43:02 51°19.166 2°56.964 17.0779 4.468391 34.603941 -3.020363
2011-07-20 07:43:07 51°19.173 2°56.988 17.0765 4.468391 34.603941 -3.020363
2011-07-20 07:43:12 51°19.179 2°57.012 17.0774 4.468495 34.60415 -3.020363
2011-07-20 07:43:17 51°19.186 2°57.036 17.0781 4.468599 34.604359 -3.020363
2011-07-20 07:43:23 51°19.194 2°57.064 17.0791 4.468599 34.604359 -3.020363
2011-07-20 07:43:27 51°19.2 2°57.083 17.0782 4.468599 34.603668 -3.020363
2011-07-20 07:43:32 51°19.207 2°57.107 17.0811 4.468599 34.603668 -3.020363
2011-07-20 07:43:36 51°19.212 2°57.126 17.0797 4.468599 34.603668 -3.020363
2011-07-20 07:43:42 51°19.221 2°57.154 17.0812 4.468599 34.604359 -3.020363
2011-07-20 07:43:48 51°19.23 2°57.182 17.0803 4.468599 34.604359 -3.020363
2011-07-20 07:43:52 51°19.236 2°57.2 17.0815 4.468599 34.603668 -3.020363
2011-07-20 07:43:56 51°19.243 2°57.218 17.0862 4.468703 34.604568 -3.020363
2011-07-20 07:44:02 51°19.253 2°57.245 17.0844 4.468806 34.604777 -3.020363
2011-07-20 07:44:08 51°19.263 2°57.272 17.0836 4.468806 34.604777 -3.020363
2011-07-20 07:44:12 51°19.269 2°57.29 17.0843 4.468703 34.603187 -3.020363
2011-07-20 07:44:17 51°19.278 2°57.312 17.086 4.468806 34.604087 -3.020363
2011-07-20 07:44:22 51°19.287 2°57.335 17.085 4.468806 34.604087 -3.020363
2011-07-20 07:44:28 51°19.297 2°57.362 17.0859 4.46891 34.604296 -3.020363
2011-07-20 07:44:32 51°19.304 2°57.38 17.085 4.469014 34.603815 -3.020363
2011-07-20 07:44:37 51°19.312 2°57.403 17.0858 4.469014 34.603815 -3.020363
2011-07-20 07:44:43 51°19.322 2°57.43 17.0865 4.469014 34.603815 -3.020363
2011-07-20 07:44:47 51°19.328 2°57.448 17.0849 4.469117 34.604024 -3.020363
2011-07-20 07:44:52 51°19.337 2°57.471 17.0845 4.469221 34.604233 -3.020363
2011-07-20 07:44:57 51°19.345 2°57.494 17.0849 4.469221 34.603543 -3.020363
2011-07-20 07:45:03 51°19.355 2°57.521 17.0856 4.469221 34.603543 -3.020363
2011-07-20 07:45:07 51°19.362 2°57.539 17.085 4.469221 34.603543 -3.020363
2011-07-20 07:45:12 51°19.37 2°57.561 17.088 4.469325 34.604442 -3.020363
2011-07-20 07:45:17 51°19.378 2°57.584 17.0867 4.469325 34.604442 -3.020363
2011-07-20 07:45:23 51°19.388 2°57.611 17.0873 4.469221 34.603543 -3.020363
2011-07-20 07:45:27 51°19.394 2°57.629 17.0876 4.469221 34.603543 -3.020363
2011-07-20 07:45:32 51°19.402 2°57.652 17.0869 4.469221 34.604233 -3.020363
2011-07-20 07:45:37 51°19.41 2°57.675 17.0859 4.469221 34.604233 -3.020363
2011-07-20 07:45:43 51°19.419 2°57.702 17.0876 4.468184 34.594549 -3.020363
2011-07-20 07:45:47 51°19.425 2°57.721 17.0883 4.468495 34.597247 -3.020363
2011-07-20 07:45:52 51°19.431 2°57.744 17.0893 4.467769 34.590261 -3.020363
2011-07-20 07:45:57 51°19.437 2°57.768 17.0862 4.468391 34.594967 -3.020363
2011-07-20 07:46:02 51°19.444 2°57.792 17.0854 4.468599 34.596766 -3.020363
2011-07-20 07:46:07 51°19.45 2°57.816 17.0865 4.468599 34.596766 -3.020363
2011-07-20 07:46:12 51°19.457 2°57.84 17.0841 4.468495 34.595177 -3.020363
2011-07-20 07:46:16 51°19.462 2°57.859 17.0823 4.468702 34.596285 -3.020363
2011-07-20 07:46:22 51°19.47 2°57.888 17.0823 4.468599 34.595386 -3.020363
2011-07-20 07:46:28 51°19.478 2°57.916 17.0834 4.469636 34.603689 -3.020363
2011-07-20 07:46:32 51°19.484 2°57.935 17.0849 4.469532 34.60417 -3.020363
2011-07-20 07:46:36 51°19.489 2°57.954 17.0851 4.469532 34.60417 -3.020363
2011-07-20 07:46:42 51°19.497 2°57.982 17.0841 4.468806 34.597875 -3.020363
2011-07-20 07:46:48 51°19.506 2°58.01 17.0847 4.469429 34.603961 -3.020363
2011-07-20 07:46:52 51°19.512 2°58.029 17.0846 4.468599 34.598146 -3.020363
2011-07-20 07:46:57 51°19.521 2°58.051 17.0859 4.469117 34.603334 -3.020363
2011-07-20 07:47:02 51°19.529 2°58.074 17.0867 4.469014 34.602434 -3.020363
2011-07-20 07:47:07 51°19.537 2°58.096 17.0892 4.469014 34.602434 -3.020363
2011-07-20 07:47:12 51°19.545 2°58.118 17.0884 4.468495 34.597937 -3.020363
2011-07-20 07:47:17 51°19.553 2°58.14 17.0905 4.469325 34.604442 -3.020363
2011-07-20 07:47:23 51°19.563 2°58.167 17.0909 4.469117 34.603334 -3.020363
2011-07-20 07:47:27 51°19.57 2°58.185 17.091 4.469325 34.605132 -3.020363
2011-07-20 07:47:32 51°19.578 2°58.208 17.0911 4.469221 34.604233 -3.020363
2011-07-20 07:47:37 51°19.587 2°58.23 17.0942 4.469221 34.604233 -3.020363
2011-07-20 07:47:43 51°19.596 2°58.257 17.0952 4.469221 34.602852 -3.020363
2011-07-20 07:47:47 51°19.603 2°58.275 17.0972 4.469325 34.603062 -3.020363
2011-07-20 07:47:52 51°19.61 2°58.298 17.0948 4.469221 34.600782 -3.020363
2011-07-20 07:47:57 51°19.617 2°58.321 17.0966 4.469429 34.60189 -3.020363
2011-07-20 07:48:03 51°19.625 2°58.35 17.0934 4.46891 34.596704 -3.020363
2011-07-20 07:48:07 51°19.63 2°58.369 17.0934 4.46891 34.596704 -3.020363
2011-07-20 07:48:12 51°19.637 2°58.393 17.0945 4.469532 34.60141 -3.020363
2011-07-20 07:48:17 51°19.643 2°58.416 17.096 4.469843 34.602727 -3.020363
2011-07-20 07:48:23 51°19.651 2°58.445 17.0942 4.469636 34.599549 -3.020363
2011-07-20 07:48:28 51°19.658 2°58.469 17.0939 4.469325 34.596161 -3.020363
2011-07-20 07:48:32 51°19.663 2°58.488 17.0948 4.469117 34.594363 -3.020363
2011-07-20 07:48:37 51°19.67 2°58.511 17.0948 4.469117 34.594363 -3.020363
2011-07-20 07:48:42 51°19.676 2°58.535 17.0941 4.469947 34.601556 -3.020363
2011-07-20 07:48:48 51°19.684 2°58.564 17.092 4.470051 34.601765 -3.020363
2011-07-20 07:48:52 51°19.689 2°58.582 17.0951 4.469947 34.601556 -3.020363
2011-07-20 07:48:56 51°19.694 2°58.601 17.0928 4.470051 34.602455 -3.020363
2011-07-20 07:49:02 51°19.703 2°58.629 17.0953 4.469947 34.601556 -3.020363
2011-07-20 07:49:07 51°19.709 2°58.653 17.095 4.469947 34.601556 -3.020363
2011-07-20 07:49:12 51°19.716 2°58.676 17.0941 4.469947 34.600866 -3.020363
2011-07-20 07:49:16 51°19.722 2°58.695 17.0959 4.469947 34.601556 -3.020363
2011-07-20 07:49:22 51°19.731 2°58.722 17.0947 4.469843 34.601347 -3.020363
2011-07-20 07:49:28 51°19.74 2°58.749 17.0931 4.469843 34.600657 -3.020363
2011-07-20 07:49:32 51°19.747 2°58.767 17.0966 4.46974 34.599758 -3.020363
2011-07-20 07:49:37 51°19.755 2°58.789 17.0967 4.46974 34.599758 -3.020363
2011-07-20 07:49:42 51°19.764 2°58.811 17.0962 4.469843 34.600657 -3.020363
2011-07-20 07:49:48 51°19.774 2°58.837 17.0986 4.46974 34.600448 -3.020363
2011-07-20 07:49:52 51°19.781 2°58.854 17.0977 4.46974 34.600448 -3.020363
2011-07-20 07:49:57 51°19.789 2°58.877 17.099 4.46974 34.600448 -3.020363
2011-07-20 07:50:02 51°19.798 2°58.899 17.0994 4.46891 34.593254 -3.020363
2011-07-20 07:50:08 51°19.808 2°58.925 17.0996 4.46891 34.593254 -3.020363
2011-07-20 07:50:12 51°19.815 2°58.943 17.1017 4.468287 34.587169 -3.020363
2011-07-20 07:50:17 51°19.822 2°58.965 17.1029 4.469117 34.593673 -3.020363
2011-07-20 07:50:23 51°19.831 2°58.993 17.0986 4.469221 34.593882 -3.020363
2011-07-20 07:50:28 51°19.838 2°59.016 17.0996 4.469325 34.594091 -3.020363
2011-07-20 07:50:32 51°19.844 2°59.035 17.0995 4.469843 34.597897 -3.020363
2011-07-20 07:50:37 51°19.851 2°59.058 17.1021 4.469843 34.597897 -3.020363
2011-07-20 07:50:43 51°19.859 2°59.086 17.0977 4.469947 34.598106 -3.020363
2011-07-20 07:50:48 51°19.865 2°59.109 17.0973 4.469947 34.596727 -3.020363
2011-07-20 07:50:52 51°19.87 2°59.128 17.0964 4.469947 34.596037 -3.020363
2011-07-20 07:50:57 51°19.877 2°59.151 17.0959 4.469428 34.591542 -3.020363
2011-07-20 07:51:02 51°19.884 2°59.175 17.0928 4.46974 34.594929 -3.020363
2011-07-20 07:51:08 51°19.892 2°59.203 17.0917 4.46974 34.594929 -3.020363
2011-07-20 07:51:12 51°19.897 2°59.221 17.0928 4.469636 34.594029 -3.020363
2011-07-20 07:51:17 51°19.904 2°59.244 17.0924 4.469117 34.589534 -3.020363
2011-07-20 07:51:22 51°19.912 2°59.266 17.093 4.469325 34.592712 -3.020363
2011-07-20 07:51:27 51°19.92 2°59.289 17.0923 4.469014 34.591394 -3.020363
2011-07-20 07:51:32 51°19.928 2°59.311 17.0932 4.469014 34.592084 -3.020363
2011-07-20 07:51:36 51°19.935 2°59.329 17.0954 4.469014 34.592084 -3.020363
2011-07-20 07:51:42 51°19.945 2°59.355 17.0988 4.468391 34.588068 -3.020363
2011-07-20 07:51:47 51°19.953 2°59.378 17.0992 4.468599 34.591246 -3.020363
2011-07-20 07:51:52 51°19.96 2°59.4 17.1009 4.468391 34.589448 -3.020363
2011-07-20 07:51:56 51°19.966 2°59.418 17.1006 4.467769 34.584053 -3.020363
2011-07-20 07:52:02 51°19.975 2°59.446 17.0996 4.467561 34.582944 -3.020363
2011-07-20 07:52:08 51°19.983 2°59.474 17.1037 4.467561 34.582944 -3.020363
2011-07-20 07:52:12 51°19.989 2°59.493 17.1039 4.468806 34.593045 -3.020363
2011-07-20 07:52:16 51°19.993 2°59.511 17.1033 4.468599 34.589177 -3.020363
2011-07-20 07:52:22 51°20.001 2°59.54 17.1017 4.468599 34.587797 -3.020363
2011-07-20 07:52:28 51°20.008 2°59.568 17.1019 4.46891 34.589115 -3.020363
2011-07-20 07:52:32 51°20.014 2°59.587 17.104 4.468495 34.584829 -3.020363
2011-07-20 07:52:37 51°20.02 2°59.611 17.1064 4.468495 34.584829 -3.020363
2011-07-20 07:52:43 51°20.028 2°59.639 17.1036 4.46891 34.587736 -3.020363
2011-07-20 07:52:48 51°20.034 2°59.663 17.1039 4.46891 34.586357 -3.020363
2011-07-20 07:52:52 51°20.039 2°59.681 17.1062 4.469221 34.589054 -3.020363
2011-07-20 07:52:57 51°20.046 2°59.704 17.1054 4.469325 34.589953 -3.020363
2011-07-20 07:53:02 51°20.053 2°59.728 17.1077 4.469221 34.589054 -3.020363
2011-07-20 07:53:08 51°20.06 2°59.756 17.1084 4.469221 34.589054 -3.020363
2011-07-20 07:53:12 51°20.065 2°59.774 17.1103 4.469117 34.587465 -3.020363
2011-07-20 07:53:17 51°20.072 2°59.798 17.1084 4.469013 34.586566 -3.020363
2011-07-20 07:53:22 51°20.078 2°59.822 17.1121 4.469117 34.586776 -3.020363
2011-07-20 07:53:28 51°20.085 2°59.85 17.1114 4.469221 34.586985 -3.020363
2011-07-20 07:53:32 51°20.09 2°59.869 17.1123 4.469221 34.586296 -3.020363
2011-07-20 07:53:37 51°20.096 2°59.893 17.1129 4.469221 34.586296 -3.020363
2011-07-20 07:53:42 51°20.103 2°59.916 17.1128 4.469221 34.584917 -3.020363
2011-07-20 07:53:47 51°20.109 2°59.939 17.1167 4.469428 34.586025 -3.020363
2011-07-20 07:53:52 51°20.116 2°59.963 17.1163 4.469221 34.584227 -3.020363
2011-07-20 07:53:57 51°20.122 2°59.986 17.1172 4.469636 34.587133 -3.020363
2011-07-20 07:54:02 51°20.129 3°0.009 17.1188 4.469843 34.588242 -3.020363
2011-07-20 07:54:07 51°20.136 3°0.032 17.1205 4.469843 34.588242 -3.020363
2011-07-20 07:54:12 51°20.144 3°0.055 17.1213 4.469947 34.587762 -3.020363
2011-07-20 07:54:16 51°20.15 3°0.073 17.1224 4.470154 34.589559 -3.020363
2011-07-20 07:54:22 51°20.158 3°0.1 17.1238 4.469221 34.579402 -3.020363
2011-07-20 07:54:27 51°20.166 3°0.123 17.1265 4.469843 34.584105 -3.020363
2011-07-20 07:54:32 51°20.173 3°0.145 17.1255 4.470051 34.585214 -3.020363
2011-07-20 07:54:36 51°20.179 3°0.163 17.1267 4.470051 34.585214 -3.020363
2011-07-20 07:54:42 51°20.187 3°0.191 17.1289 4.470362 34.586531 -3.020363
2011-07-20 07:54:48 51°20.196 3°0.219 17.1288 4.470569 34.58695 -3.020363
2011-07-20 07:54:52 51°20.201 3°0.237 17.1288 4.470569 34.586261 -3.020363
2011-07-20 07:54:56 51°20.207 3°0.255 17.1295 4.471192 34.590275 -3.020363
2011-07-20 07:55:02 51°20.215 3°0.283 17.1277 4.471192 34.588896 -3.020363
2011-07-20 07:55:08 51°20.222 3°0.311 17.1284 4.471192 34.588896 -3.020363
2011-07-20 07:55:12 51°20.227 3°0.33 17.1285 4.471295 34.588416 -3.020363
2011-07-20 07:55:17 51°20.234 3°0.353 17.1308 4.471399 34.587937 -3.020363
2011-07-20 07:55:22 51°20.24 3°0.377 17.132 4.471192 34.585451 -3.020363
2011-07-20 07:55:28 51°20.248 3°0.404 17.1351 4.47171 34.588565 -3.020363
2011-07-20 07:55:32 51°20.253 3°0.423 17.1349 4.470777 34.580478 -3.020363
2011-07-20 07:55:37 51°20.261 3°0.445 17.1362 4.470777 34.580478 -3.020363
2011-07-20 07:55:42 51°20.269 3°0.467 17.1404 4.471918 34.590362 -3.020363
2011-07-20 07:55:48 51°20.279 3°0.493 17.1411 4.472021 34.591261 -3.020363
2011-07-20 07:55:52 51°20.286 3°0.511 17.1423 4.471503 34.586079 -3.020363
2011-07-20 07:55:57 51°20.294 3°0.533 17.1459 4.471918 34.588984 -3.020363
2011-07-20 07:56:02 51°20.302 3°0.555 17.1476 4.472125 34.589403 -3.020363
2011-07-20 07:56:07 51°20.311 3°0.577 17.1507 4.472125 34.589403 -3.020363
2011-07-20 07:56:12 51°20.319 3°0.598 17.1537 4.472332 34.589822 -3.020363
2011-07-20 07:56:17 51°20.327 3°0.62 17.1565 4.472125 34.585958 -3.020363
2011-07-20 07:56:22 51°20.335 3°0.642 17.1593 4.472436 34.587275 -3.020363
2011-07-20 07:56:27 51°20.343 3°0.664 17.1624 4.472851 34.588802 -3.020363
2011-07-20 07:56:32 51°20.351 3°0.686 17.1646 4.472644 34.584939 -3.020363
2011-07-20 07:56:37 51°20.359 3°0.708 17.1662 4.472644 34.584939 -3.020363
2011-07-20 07:56:42 51°20.366 3°0.73 17.1765 4.472747 34.583771 -3.020363
2011-07-20 07:56:47 51°20.374 3°0.752 17.1812 4.473266 34.586196 -3.020363
2011-07-20 07:56:52 51°20.382 3°0.774 17.1844 4.472436 34.576945 -3.020363
2011-07-20 07:56:56 51°20.388 3°0.791 17.1894 4.47254 34.57509 -3.020363
2011-07-20 07:57:02 51°20.397 3°0.817 17.1966 4.473577 34.580628 -3.020363
2011-07-20 07:57:08 51°20.406 3°0.844 17.2007 4.473577 34.580628 -3.020363
2011-07-20 07:57:12 51°20.413 3°0.861 17.2011 4.473888 34.579192 -3.020363
2011-07-20 07:57:16 51°20.419 3°0.879 17.2036 4.474303 34.57659 -3.020363
2011-07-20 07:57:22 51°20.427 3°0.906 17.2105 4.474406 34.56992 -3.020363
2011-07-20 07:57:28 51°20.436 3°0.933 17.2209 4.475444 34.573393 -3.020363
2011-07-20 07:57:32 51°20.442 3°0.95 17.2622 4.476274 34.575759 -3.020363
2011-07-20 07:57:37 51°20.449 3°0.973 17.2881 4.476274 34.575759 -3.020363
2011-07-20 07:57:42 51°20.456 3°0.995 17.3278 4.47617 34.569362 -3.020363
2011-07-20 07:57:48 51°20.465 3°1.021 17.3458 4.47617 34.564551 -3.020363
2011-07-20 07:57:52 51°20.471 3°1.039 17.3669 4.476688 34.564913 -3.020363
2011-07-20 07:57:57 51°20.478 3°1.062 17.3709 4.476377 34.557414 -3.020363
2011-07-20 07:58:02 51°20.484 3°1.085 17.3725 4.475236 34.539312 -3.020363
2011-07-20 07:58:07 51°20.49 3°1.108 17.3727 4.475236 34.539312 -3.020363
2011-07-20 07:58:12 51°20.496 3°1.131 17.3705 4.47036 34.482793 -3.020363
2011-07-20 07:58:17 51°20.501 3°1.154 17.3701 4.461127 34.375763 -3.020363
2011-07-20 07:58:23 51°20.508 3°1.182 17.3701 4.453451 34.291863 -3.020363
2011-07-20 07:58:27 51°20.512 3°1.201 17.3758 4.444323 34.187439 -3.020363
2011-07-20 07:58:32 51°20.517 3°1.224 17.3688 4.440484 34.136817 -3.020363
2011-07-20 07:58:37 51°20.523 3°1.248 17.3676 4.440484 34.136817 -3.020363
2011-07-20 07:58:43 51°20.53 3°1.275 17.3704 4.436024 34.088996 -3.020363
2011-07-20 07:58:47 51°20.535 3°1.294 17.3698 4.43509 34.073551 -3.020363
2011-07-20 07:58:52 51°20.541 3°1.317 17.3737 4.433223 34.053456 -3.020363
2011-07-20 07:58:57 51°20.547 3°1.34 17.3829 4.431149 34.03293 -3.020363
2011-07-20 07:59:03 51°20.553 3°1.368 17.3958 4.429178 34.013972 -3.020363
2011-07-20 07:59:07 51°20.558 3°1.386 17.3991 4.429178 34.013972 -3.020363
2011-07-20 07:59:12 51°20.564 3°1.409 17.407 4.427518 33.99971 -3.020363
2011-07-20 07:59:17 51°20.57 3°1.432 17.4124 4.425651 33.982993 -3.020363
2011-07-20 07:59:22 51°20.576 3°1.455 17.4443 4.423577 33.964496 -3.020363
2011-07-20 07:59:28 51°20.583 3°1.482 17.4467 4.421606 33.94555 -3.020363
2011-07-20 07:59:32 51°20.588 3°1.5 17.4428 4.418806 33.917469 -3.020363
2011-07-20 07:59:37 51°20.594 3°1.523 17.4463 4.418806 33.917469 -3.020363
2011-07-20 07:59:43 51°20.601 3°1.551 17.4339 4.415279 33.881823 -3.020363
2011-07-20 07:59:48 51°20.608 3°1.573 17.4337 4.411545 33.842407 -3.020363
2011-07-20 07:59:52 51°20.613 3°1.591 17.4357 4.408433 33.810356 -3.020363
2011-07-20 07:59:57 51°20.619 3°1.614 17.425 4.404284 33.762754 -3.020363
2011-07-20 08:00:02 51°20.625 3°1.637 17.4246 4.400965 33.724968 -3.020363
2011-07-20 08:00:08 51°20.633 3°1.664 17.4283 4.400965 33.724968 -3.020363
2011-07-20 08:00:12 51°20.638 3°1.682 17.4249 4.398787 33.700975 -3.020363
2011-07-20 08:00:17 51°20.644 3°1.704 17.4341 4.397335 33.685207 -3.020363
2011-07-20 08:00:22 51°20.651 3°1.727 17.4166 4.396401 33.677207 -3.020363
2011-07-20 08:00:27 51°20.657 3°1.749 17.4193 4.394638 33.664091 -3.020363
2011-07-20 08:00:32 51°20.663 3°1.772 17.4319 4.395261 33.671417 -3.020363
2011-07-20 08:00:37 51°20.669 3°1.793 17.4426 4.395261 33.671417 -3.020363
2011-07-20 08:00:42 51°20.678 3°1.811 17.4668 4.395157 33.671193 -3.020363
2011-07-20 08:00:47 51°20.687 3°1.827 17.5025 4.394327 33.664082 -3.020363
2011-07-20 08:00:52 51°20.697 3°1.84 17.515 4.394846 33.668526 -3.020363
2011-07-20 08:00:56 51°20.706 3°1.849 17.531 4.395676 33.677631 -3.020363
2011-07-20 08:01:02 51°20.72 3°1.859 17.5363 4.395883 33.681403 -3.020363
2011-07-20 08:01:07 51°20.731 3°1.864 17.5339 4.395883 33.681403 -3.020363
2011-07-20 08:01:12 51°20.743 3°1.867 17.5435 4.39412 33.664298 -3.020363
2011-07-20 08:01:16 51°20.753 3°1.869 17.5565 4.389452 33.615015 -3.020363
2011-07-20 08:01:22 51°20.767 3°1.866 17.5719 4.383333 33.547381 -3.020363
2011-07-20 08:01:28 51°20.78 3°1.86 17.5663 4.378562 33.487399 -3.020363
2011-07-20 08:01:32 51°20.788 3°1.854 17.5592 4.37545 33.446289 -3.020363
2011-07-20 08:01:36 51°20.796 3°1.846 17.5506 4.37545 33.446289 -3.020363
2011-07-20 08:01:42 51°20.807 3°1.831 17.5454 4.374206 33.425119 -3.020363
2011-07-20 08:01:48 51°20.816 3°1.813 17.5295 4.373583 33.412566 -3.020363
2011-07-20 08:01:52 51°20.821 3°1.799 17.5332 4.373064 33.399591 -3.020363
2011-07-20 08:01:57 51°20.826 3°1.78 17.5245 4.371612 33.377997 -3.020363
2011-07-20 08:02:02 51°20.829 3°1.761 17.5396 4.372027 33.375632 -3.020363
2011-07-20 08:02:08 51°20.831 3°1.736 17.5525 4.372027 33.375632 -3.020363
2011-07-20 08:02:12 51°20.832 3°1.72 17.5674 4.372546 33.379402 -3.020363
2011-07-20 08:02:17 51°20.831 3°1.699 17.5787 4.374516 33.398852 -3.020363
2011-07-20 08:02:22 51°20.828 3°1.678 17.5885 4.376279 33.418507 -3.020363
2011-07-20 08:02:27 51°20.823 3°1.657 17.596 4.37742 33.432853 -3.020363
2011-07-20 08:02:32 51°20.817 3°1.638 17.5981 4.377939 33.439914 -3.020363
2011-07-20 08:02:37 51°20.81 3°1.62 17.6037 4.377939 33.439914 -3.020363
2011-07-20 08:02:42 51°20.802 3°1.603 17.6011 4.376176 33.422223 -3.020363
2011-07-20 08:02:47 51°20.793 3°1.588 17.6118 4.373894 33.396823 -3.020363
2011-07-20 08:02:52 51°20.782 3°1.573 17.6148 4.371923 33.369497 -3.020363
2011-07-20 08:02:57 51°20.772 3°1.56 17.617 4.371819 33.360086 -3.020363
2011-07-20 08:03:02 51°20.76 3°1.548 17.6038 4.37213 33.35422 -3.020363
2011-07-20 08:03:07 51°20.749 3°1.535 17.591 4.37213 33.35422 -3.020363
2011-07-20 08:03:12 51°20.737 3°1.523 17.568 4.372649 33.352746 -3.020363
2011-07-20 08:03:17 51°20.724 3°1.51 17.5559 4.372545 33.346622 -3.020363
2011-07-20 08:03:22 51°20.712 3°1.498 17.5305 4.373375 33.349113 -3.020363
2011-07-20 08:03:27 51°20.699 3°1.486 17.5195 4.373997 33.349181 -3.020363
2011-07-20 08:03:32 51°20.687 3°1.473 17.514 4.374826 33.352981 -3.020363
2011-07-20 08:03:36 51°20.677 3°1.464 17.503 4.374826 33.352981 -3.020363
2011-07-20 08:03:42 51°20.661 3°1.449 17.4858 4.375864 33.363788 -3.020363
2011-07-20 08:03:47 51°20.648 3°1.437 17.4771 4.377938 33.388686 -3.020363
2011-07-20 08:03:52 51°20.636 3°1.424 17.4554 4.380324 33.417564 -3.020363
2011-07-20 08:03:56 51°20.626 3°1.412 17.4424 4.382398 33.450376 -3.020363
2011-07-20 08:04:02 51°20.611 3°1.395 17.4294 4.385821 33.490128 -3.020363
2011-07-20 08:04:08 51°20.597 3°1.378 17.4193 4.385821 33.490128 -3.020363
2011-07-20 08:04:12 51°20.587 3°1.367 17.4295 4.388414 33.524798 -3.020363
2011-07-20 08:04:16 51°20.577 3°1.357 17.446 4.3908 33.555744 -3.020363
2011-07-20 08:04:22 51°20.562 3°1.341 17.4548 4.394015 33.595793 -3.020363
2011-07-20 08:04:28 51°20.546 3°1.326 17.4554 4.396297 33.627226 -3.020363
2011-07-20 08:04:32 51°20.536 3°1.316 17.4542 4.399512 33.668003 -3.020363
2011-07-20 08:04:37 51°20.523 3°1.304 17.4371 4.399512 33.668003 -3.020363
2011-07-20 08:04:42 51°20.511 3°1.291 17.4401 4.400965 33.696372 -3.020363
2011-07-20 08:04:47 51°20.498 3°1.279 17.4404 4.401483 33.709455 -3.020363
2011-07-20 08:04:52 51°20.486 3°1.267 17.452 4.399824 33.695901 -3.020363
2011-07-20 08:04:57 51°20.475 3°1.256 17.4459 4.397542 33.672368 -3.020363
2011-07-20 08:05:03 51°20.463 3°1.243 17.4677 4.397542 33.669712 -3.020363
2011-07-20 08:05:07 51°20.455 3°1.234 17.4738 4.397542 33.669712 -3.020363
2011-07-20 08:05:12 51°20.447 3°1.224 17.496 4.399098 33.682374 -3.020363
2011-07-20 08:05:17 51°20.439 3°1.214 17.4907 4.402106 33.711462 -3.020363
2011-07-20 08:05:23 51°20.429 3°1.202 17.5021 4.402832 33.719013 -3.020363
2011-07-20 08:05:27 51°20.424 3°1.193 17.4998 4.400965 33.703017 -3.020363
2011-07-20 08:05:32 51°20.417 3°1.184 17.5121 4.400031 33.692362 -3.020363
2011-07-20 08:05:37 51°20.411 3°1.174 17.5162 4.400031 33.692362 -3.020363
2011-07-20 08:05:43 51°20.404 3°1.163 17.5003 4.397646 33.666617 -3.020363
2011-07-20 08:05:47 51°20.399 3°1.156 17.4952 4.395468 33.640669 -3.020363
2011-07-20 08:05:52 51°20.394 3°1.147 17.4984 4.393393 33.613635 -3.020363
2011-07-20 08:05:57 51°20.389 3°1.138 17.503 4.392459 33.598364 -3.020363
2011-07-20 08:06:03 51°20.383 3°1.128 17.4944 4.391733 33.58752 -3.020363
2011-07-20 08:06:07 51°20.379 3°1.122 17.4872 4.391733 33.58752 -3.020363
2011-07-20 08:06:12 51°20.375 3°1.113 17.4877 4.391007 33.574697 -3.020363
2011-07-20 08:06:16 51°20.372 3°1.107 17.4782 4.3908 33.569618 -3.020363
2011-07-20 08:06:22 51°20.367 3°1.097 17.4628 4.392874 33.588019 -3.020363
2011-07-20 08:06:27 51°20.363 3°1.089 17.4644 4.393393 33.594439 -3.020363
2011-07-20 08:06:32 51°20.359 3°1.08 17.4623 4.395363 33.611957 -3.020363
2011-07-20 08:06:36 51°20.355 3°1.074 17.4733 4.395363 33.611957 -3.020363
2011-07-20 08:06:42 51°20.35 3°1.063 17.4717 4.396919 33.627252 -3.020363
2011-07-20 08:06:48 51°20.345 3°1.052 17.432 4.398682 33.64565 -3.020363
2011-07-20 08:06:52 51°20.342 3°1.045 17.4 4.400757 33.666716 -3.020363
2011-07-20 08:06:56 51°20.339 3°1.037 17.3798 4.404283 33.703538 -3.020363
2011-07-20 08:07:02 51°20.334 3°1.026 17.3554 4.407395 33.734831 -3.020363
2011-07-20 08:07:08 51°20.329 3°1.014 17.3443 4.407395 33.734831 -3.020363
2011-07-20 08:07:12 51°20.326 3°1.006 17.3217 4.409158 33.752591 -3.020363
2011-07-20 08:07:17 51°20.322 3°0.995 17.3136 4.409366 33.754368 -3.020363
2011-07-20 08:07:22 51°20.319 3°0.985 17.3005 4.41507 33.809896 -3.020363
2011-07-20 08:07:27 51°20.315 3°0.974 17.297 4.42731 33.933524 -3.020363
2011-07-20 08:07:32 51°20.311 3°0.962 17.2888 4.439239 34.054674 -3.020363
2011-07-20 08:07:37 51°20.308 3°0.951 17.2781 4.439239 34.054674 -3.020363
2011-07-20 08:07:43 51°20.304 3°0.937 17.2723 4.448367 34.150593 -3.020363
2011-07-20 08:07:47 51°20.301 3°0.928 17.2656 4.455213 34.227016 -3.020363
2011-07-20 08:07:52 51°20.298 3°0.916 17.2543 4.461437 34.295466 -3.020363
2011-07-20 08:07:57 51°20.294 3°0.904 17.2527 4.465587 34.345446 -3.020363
2011-07-20 08:08:03 51°20.29 3°0.889 17.2471 4.469529 34.391644 -3.020363
2011-07-20 08:08:07 51°20.287 3°0.88 17.2419 4.469529 34.391644 -3.020363
2011-07-20 08:08:12 51°20.283 3°0.867 17.2337 4.472122 34.424895 -3.020363
2011-07-20 08:08:17 51°20.279 3°0.853 17.2304 4.473367 34.446542 -3.020363
2011-07-20 08:08:23 51°20.274 3°0.835 17.2332 4.475338 34.470367 -3.020363
2011-07-20 08:08:27 51°20.271 3°0.823 17.2336 4.476376 34.487517 -3.020363
2011-07-20 08:08:32 51°20.266 3°0.807 17.2319 4.477102 34.500622 -3.020363
2011-07-20 08:08:37 51°20.261 3°0.79 17.228 4.477102 34.500622 -3.020363
2011-07-20 08:08:42 51°20.256 3°0.772 17.2262 4.477206 34.508361 -3.020363
2011-07-20 08:08:48 51°20.249 3°0.751 17.2273 4.476065 34.505356 -3.020363
2011-07-20 08:08:52 51°20.244 3°0.737 17.2263 4.477725 34.525165 -3.020363
2011-07-20 08:08:56 51°20.24 3°0.722 17.225 4.477621 34.529751 -3.020363
2011-07-20 08:09:02 51°20.232 3°0.7 17.2197 4.477206 34.528223 -3.020363
2011-07-20 08:09:07 51°20.226 3°0.681 17.2246 4.477206 34.528223 -3.020363
2011-07-20 08:09:12 51°20.22 3°0.662 17.2204 4.477725 34.534759 -3.020363
2011-07-20 08:09:16 51°20.215 3°0.647 17.223 4.477621 34.53592 -3.020363
2011-07-20 08:09:22 51°20.208 3°0.624 17.2252 4.477829 34.538397 -3.020363
2011-07-20 08:09:27 51°20.202 3°0.604 17.2254 4.477932 34.540665 -3.020363
2011-07-20 08:09:32 51°20.196 3°0.584 17.2269 4.478036 34.542932 -3.020363
2011-07-20 08:09:36 51°20.192 3°0.567 17.2262 4.478036 34.542932 -3.020363
2011-07-20 08:09:42 51°20.186 3°0.542 17.2211 4.477932 34.544094 -3.020363
2011-07-20 08:09:48 51°20.181 3°0.517 17.2184 4.477518 34.541881 -3.020363
2011-07-20 08:09:52 51°20.178 3°0.499 17.2146 4.478036 34.546362 -3.020363
2011-07-20 08:09:57 51°20.175 3°0.478 17.2117 4.477518 34.541195 -3.020363